GEFSSE_con_cape1000_162.txt.gz
Probability
23 19 45 42 42 42 39 32 35 35 29 39 48 48 45 42 45 42 48 45 48 52 61 68 68 74 77 71 77 81 81 68 68 61 65 71 65 58 58 58 61 58 65
13 10 42 39 35 29 26 23 23 23 23 29 29 32 32 35 29 26 32 35 35 39 45 52 58 71 74 77 77 74 68 58 52 58 58 68 68 71 58 61 61 61 58
6 6 16 29 23 23 23 29 26 29 26 19 23 19 16 16 16 16 23 23 23 29 35 35 48 58 61 71 71 68 68 52 61 58 68 68 55 61 61 55 52 58 52
10 6 6 32 23 23 26 26 23 16 13 13 16 16 13 16 16 16 16 23 23 23 23 23 29 42 45 55 58 65 61 52 61 74 55 48 32 65 58 52 52 55 48
10 6 6 29 19 16 16 19 16 19 16 16 13 13 16 13 10 13 13 16 19 16 16 16 32 39 39 48 58 55 55 52 65 65 42 52 42 58 52 52 55 55 52
3 6 10 19 13 13 10 13 16 19 16 16 16 13 16 16 10 13 10 13 13 13 19 16 23 29 32 35 39 45 52 58 61 42 48 52 39 55 48 45 52 48 42
3 3 3 3 6 10 13 16 16 16 16 13 13 13 10 10 10 13 13 16 10 10 13 19 23 29 29 32 39 32 52 65 52 45 45 42 45 58 55 48 52 48 52
3 3 3 6 13 13 16 16 13 16 13 13 13 10 13 10 6 10 13 13 6 6 10 10 16 19 23 23 35 32 42 55 26 35 45 39 68 45 52 55 55 52 52
3 3 3 3 6 10 10 10 10 6 13 13 13 6 10 13 10 10 13 3 3 10 6 16 16 13 13 19 23 29 45 52 19 32 32 39 65 48 39 55 55 65 65
3 3 3 0 0 0 3 10 10 6 6 10 10 6 10 10 10 10 6 13 6 10 10 13 16 16 16 16 23 32 39 35 10 29 32 45 74 52 45 45 55 61 65
0 0 0 0 0 0 0 0 0 3 3 3 3 6 3 6 6 6 6 13 13 13 13 13 16 19 19 16 23 29 32 10 19 32 35 65 65 52 55 55 52 52 48
0 0 0 0 0 0 0 0 0 0 0 0 0 0 0 0 0 0 3 13 13 10 10 13 19 16 10 6 13 23 6 10 23 16 39 71 52 42 39 48 45 42 35
0 0 0 0 0 0 0 0 0 0 0 0 0 0 0 0 0 0 0 0 0 0 0 3 13 0 0 3 3 3 6 10 16 13 39 74 52 55 42 39 48 42 42
0 0 0 0 0 0 0 0 0 0 0 0 0 0 0 0 0 0 0 0 0 0 0 0 0 0 0 3 3 6 10 6 13 6 26 61 42 42 39 45 48 39 39
0 0 0 0 0 0 0 0 0 0 0 0 0 0 0 0 0 0 0 0 0 0 0 0 0 0 0 0 3 3 3 10 13 3 13 42 45 48 39 39 39 42 39
0 0 0 0 0 0 0 0 0 0 0 0 0 0 0 0 0 0 0 3 0 0 3 0 0 0 3 3 3 6 3 10 13 6 16 13 29 32 32 32 29 35 35
0 0 0 0 0 0 0 0 0 0 0 0 0 0 0 0 0 0 3 0 0 0 3 0 3 0 3 3 3 3 3 16 10 13 16 13 10 19 26 26 29 29 29
0 0 0 0 0 0 0 0 0 0 0 0 0 0 0 0 0 0 0 0 0 3 3 3 0 3 3 3 3 6 6 13 6 13 13 10 6 6 16 26 26 26 32
0 0 0 0 0 0 0 0 0 0 0 0 0 0 0 0 0 0 0 3 3 3 3 0 6 0 3 6 6 10 6 13 10 10 10 10 13 6 3 10 19 23 26
0 0 0 0 0 0 0 0 0 0 0 0 0 0 0 3 3 3 3 3 3 3 3 3 0 3 3 0 0 3 3 6 10 10 6 10 10 6 10 6 6 6 10
0 0 0 0 0 0 0 0 0 0 0 0 0 0 0 3 3 3 3 3 3 3 3 3 0 0 0 0 0 0 0 0 6 10 6 6 13 13 6 6 6 3 0
0 0 0 0 0 0 0 0 0 0 0 0 0 0 0 3 3 3 3 3 3 0 0 3 0 0 0 0 0 0 0 0 0 0 3 6 10 6 6 3 3 3 3
0 0 0 0 0 0 0 0 0 0 0 0 0 0 0 3 3 3 3 3 0 0 0 0 0 0 0 0 0 0 0 0 0 0 3 6 6 3 3 3 3 3 0
0 0 0 0 0 0 0 0 0 0 0 0 0 0 0 0 3 3 3 3 0 0 0 0 0 0 0 0 0 0 0 0 0 0 3 3 3 3 3 3 0 0 0
0 0 0 0 0 0 0 0 0 0 0 0 0 0 0 0 3 3 3 3 3 3 0 0 3 0 0 0 0 0 0 0 0 0 0 0 0 0 0 0 0 0 0
0 0 0 0 0 0 0 0 0 0 0 0 0 0 0 0 0 3 0 0 0 0 0 0 0 0 0 0 0 0 0 0 0 0 0 0 0 0 0 0 0 0 0

GEFSSE_con_cape1000_168.txt.gz
Probability
3 10 48 55 55 55 55 55 55 55 61 58 58 65 65 58 55 55 65 68 65 61 61 61 65 71 71 74 74 71 71 68 65 65 68 58 58 58 65 68 45 52 58
6 19 42 42 42 45 52 48 42 42 52 52 45 52 45 48 42 42 42 39 48 45 48 52 55 55 61 61 68 74 68 65 58 55 58 52 55 65 55 58 52 48 48
3 16 35 42 45 42 48 42 39 35 26 29 26 23 29 26 26 26 29 32 35 48 45 45 55 55 61 55 61 65 65 61 65 61 45 39 52 55 52 48 52 52 52
3 6 19 39 42 39 35 35 29 19 16 19 19 19 19 19 19 26 23 26 26 32 42 39 45 48 48 52 52 48 48 61 71 52 32 32 42 48 52 52 58 52 52
3 6 26 32 35 26 23 23 16 19 13 13 13 13 13 16 19 23 19 19 19 29 35 48 45 42 42 42 48 48 48 55 58 32 19 23 26 48 52 58 58 48 42
3 3 16 23 23 23 19 19 19 19 16 16 16 16 13 16 16 13 19 13 10 13 29 39 39 35 42 42 39 48 45 65 32 23 16 19 26 58 48 55 55 48 45
3 3 6 16 16 16 16 16 16 19 19 19 19 19 19 19 19 16 13 13 6 16 19 23 29 23 29 32 42 42 48 52 16 23 19 19 29 55 55 52 45 45 48
3 3 6 16 10 13 16 16 16 19 16 16 16 16 19 19 10 10 6 10 10 19 16 26 23 19 26 32 35 39 42 39 19 23 19 29 42 48 45 42 39 45 52
3 3 3 6 6 10 13 13 16 13 6 6 10 10 16 10 10 6 10 13 13 19 19 19 19 19 19 29 26 32 45 39 6 16 32 29 58 45 42 39 42 42 45
0 0 0 0 0 0 3 6 3 3 3 6 10 10 10 10 10 6 10 13 6 10 13 16 13 16 16 26 29 39 35 19 10 26 29 35 52 45 42 32 32 45 39
0 0 0 0 0 0 0 0 0 3 3 6 10 10 0 0 0 3 10 10 6 6 10 13 16 16 13 16 16 39 10 6 6 19 29 45 45 45 42 32 35 39 35
0 0 0 0 0 0 0 0 0 0 0 0 0 0 0 0 0 0 6 6 10 6 6 13 13 3 0 3 10 6 3 3 3 16 29 55 35 39 35 26 32 42 39
0 0 0 0 0 0 0 0 0 0 0 0 0 0 0 0 0 0 0 0 0 0 0 0 0 0 0 0 0 0 0 0 3 10 26 61 45 45 35 32 29 32 45
0 0 0 0 0 0 0 0 0 0 0 0 0 0 0 0 0 0 0 0 0 0 0 0 0 0 0 0 0 0 0 3 0 3 23 55 45 29 35 39 29 32 29
0 0 0 0 0 0 0 0 0 0 0 0 0 0 0 0 0 0 0 0 0 0 0 0 0 0 0 0 0 0 0 3 3 6 13 39 26 29 29 32 29 26 29
0 0 0 0 0 0 0 0 0 0 0 0 0 0 0 0 0 0 0 0 0 0 0 0 0 0 0 0 0 0 0 3 6 10 13 19 26 29 29 29 19 29 32
0 0 0 0 0 0 0 0 0 0 0 0 0 0 0 0 0 0 0 0 0 0 0 0 0 0 0 0 0 0 0 0 3 10 10 13 13 19 29 29 32 29 26
0 0 0 0 0 0 0 0 0 0 0 0 0 0 0 0 0 0 0 0 0 0 0 0 0 0 0 0 0 0 0 0 0 0 3 3 3 16 16 26 26 29 29
0 0 0 0 0 0 0 0 0 0 0 0 0 0 0 0 0 0 0 0 0 0 0 0 0 0 0 0 0 0 0 0 0 0 3 0 0 3 6 6 6 16 23
0 0 0 0 0 0 0 0 0 0 0 0 0 0 0 0 0 0 0 0 0 0 0 0 0 0 0 0 0 0 0 0 0 0 0 0 0 0 0 3 3 3 3
0 0 0 0 0 0 0 0 0 0 0 0 0 0 0 0 0 0 0 0 0 0 0 0 0 0 0 0 0 0 0 0 0 0 0 0 3 0 0 3 3 0 0
0 0 0 0 0 0 0 0 0 0 0 0 0 0 0 0 0 0 0 0 0 0 0 0 0 0 0 0 0 0 0 0 0 0 0 0 0 0 3 3 0 0 0
0 0 0 0 0 0 0 0 0 0 0 0 0 0 0 0 0 0 0 0 0 0 0 0 0 0 0 0 0 0 0 0 0 0 0 0 0 0 0 0 0 0 0
0 0 0 0 0 0 0 0 0 0 0 0 0 0 0 0 0 0 0 0 0 0 0 0 0 0 0 0 0 0 0 0 0 0 0 0 0 0 0 0 0 0 0
0 0 0 0 0 0 0 0 0 0 0 0 0 0 0 0 0 0 0 0 0 0 0 0 0 0 0 0 0 0 0 0 0 0 0 0 0 0 0 0 0 0 0
0 0 0 0 0 0 0 0 0 0 0 0 0 0 0 0 0 0 0 0 0 0 0 0 0 0 0 0 0 0 0 0 0 0 0 0 0 0 0 0 0 0 0

GEFSSE_con_cape1000_174.txt.gz
Probability
0 3 19 32 32 45 45 48 52 45 55 58 65 65 65 65 65 61 65 81 68 71 68 74 77 71 68 68 71 71 71 65 74 65 52 55 58 58 55 58 48 45 45
0 6 26 35 39 42 42 45 52 55 52 48 42 45 48 52 52 55 55 61 55 58 52 61 61 58 58 52 58 61 68 58 52 55 55 48 52 58 55 58 48 42 42
0 6 16 39 32 29 32 39 45 26 32 39 32 32 39 52 48 52 39 48 45 42 52 48 58 55 45 45 52 48 48 65 52 55 52 42 42 48 58 58 58 52 55
3 6 10 29 23 26 23 29 29 32 26 19 23 26 26 23 23 29 32 32 39 39 39 39 42 42 42 35 42 52 55 61 58 58 26 32 32 45 42 45 52 48 55
3 6 13 19 26 19 13 16 19 19 23 23 26 26 19 19 23 26 26 23 29 39 39 39 39 42 39 35 42 45 52 55 52 32 13 16 19 42 48 52 48 42 45
3 3 13 13 16 13 13 16 19 16 16 19 16 16 23 23 23 23 23 26 35 35 35 29 35 39 35 42 42 39 39 48 29 13 13 16 23 48 55 58 61 55 45
3 3 6 13 13 13 16 19 16 13 13 13 10 10 16 19 19 23 23 19 23 23 26 29 26 26 32 32 39 39 39 42 10 13 13 16 29 58 61 58 55 55 55
3 3 3 10 13 13 16 16 13 10 6 6 6 10 10 19 16 13 19 16 13 16 19 23 26 26 23 29 32 42 39 35 19 23 19 19 39 48 48 48 42 48 52
3 3 3 3 6 6 10 10 6 6 6 10 10 10 10 10 13 10 6 10 13 16 16 16 23 29 23 23 29 32 39 45 13 16 29 26 52 42 39 39 48 39 39
0 0 0 0 0 0 0 6 3 3 10 10 10 10 6 3 6 6 6 10 3 3 13 16 23 26 26 29 26 35 42 16 6 13 13 29 45 35 35 39 39 39 39
0 0 0 0 0 0 0 0 0 3 3 3 0 3 0 0 0 0 3 6 6 6 13 13 23 16 19 23 32 39 10 3 3 6 10 42 45 42 39 35 42 39 39
0 0 0 0 0 0 0 0 0 0 0 0 0 0 0 0 0 0 3 3 3 6 6 10 10 6 3 3 6 3 3 3 3 6 19 48 45 39 35 39 39 42 45
0 0 0 0 0 0 0 0 0 0 0 0 0 0 0 0 0 0 0 0 0 0 0 0 0 0 0 0 0 0 0 0 0 3 16 42 45 42 39 39 39 39 39
0 0 0 0 0 0 0 0 0 0 0 0 0 0 0 0 0 0 0 0 0 0 0 0 0 0 0 0 0 0 0 0 0 3 13 35 42 32 32 35 39 35 35
0 0 0 0 0 0 0 0 0 0 0 0 0 0 0 0 0 0 0 0 0 0 0 0 0 0 0 0 0 0 0 3 3 6 13 29 32 35 32 32 39 35 39
0 0 0 0 0 0 0 0 0 0 0 0 0 0 0 0 0 0 0 0 0 0 0 0 0 0 0 0 0 0 0 3 3 10 10 13 23 26 29 29 29 35 32
0 0 0 0 0 0 0 0 0 0 0 0 0 0 0 0 0 0 0 0 0 0 0 0 0 0 0 0 0 0 0 0 6 10 10 10 10 13 19 29 19 32 29
0 0 0 0 0 0 0 0 0 0 0 0 0 0 0 0 0 0 0 0 0 0 0 0 0 0 0 0 0 0 0 0 0 0 3 3 3 3 3 13 16 26 26
0 0 0 0 0 0 0 0 0 0 0 0 0 0 0 0 0 0 0 0 0 0 0 0 0 0 0 0 0 0 0 0 0 0 0 0 0 0 3 3 3 3 10
0 0 0 0 0 0 0 0 0 0 0 0 0 0 0 0 0 0 0 0 0 0 0 0 0 0 0 0 0 0 0 0 0 0 0 0 0 0 0 0 0 0 0
0 0 0 0 0 0 0 0 0 0 0 0 0 0 0 0 0 0 0 0 0 0 0 0 0 0 0 0 0 0 0 0 0 0 0 0 0 0 0 0 0 0 0
0 0 0 0 0 0 0 0 0 0 0 0 0 0 0 0 0 0 0 0 0 0 0 0 0 0 0 0 0 0 0 0 0 0 0 0 0 0 0 0 0 0 0
0 0 0 0 0 0 0 0 0 0 0 0 0 0 0 0 0 0 0 0 0 0 0 0 0 0 0 0 0 0 0 0 0 0 0 0 0 0 0 0 0 0 0
0 0 0 0 0 0 0 0 0 0 0 0 0 0 0 0 0 0 0 0 0 0 0 0 0 0 0 0 0 0 0 0 0 0 0 0 0 0 0 0 0 0 0
0 0 0 0 0 0 0 0 0 0 0 0 0 0 0 0 0 0 0 0 0 0 0 0 0 0 0 0 0 0 0 0 0 0 0 0 0 0 0 0 0 0 0
0 0 0 0 0 0 0 0 0 0 0 0 0 0 0 0 0 0 0 0 0 0 0 0 0 0 0 0 0 0 0 0 0 0 0 0 0 0 0 0 0 0 0

GEFSSE_con_cape1000_180.txt.gz
Probability
3 3 3 29 32 39 39 29 45 39 42 48 42 42 55 58 61 55 65 55 61 71 61 68 71 71 74 71 74 74 74 58 55 58 48 48 55 52 58 55 52 58 52
0 6 13 26 26 32 32 29 39 35 35 35 39 32 32 39 45 42 42 58 58 52 48 58 58 61 58 58 74 65 48 52 45 48 45 45 55 48 58 55 52 61 58
3 10 10 23 19 26 26 29 32 32 26 26 26 32 32 32 35 39 39 42 42 45 48 48 42 35 35 52 52 55 48 39 45 42 39 32 35 45 58 52 42 55 65
0 3 3 23 26 19 26 23 26 13 19 23 19 26 19 23 26 32 35 35 32 39 35 39 45 39 39 45 42 45 52 52 42 39 35 35 35 42 58 55 52 45 52
3 3 10 19 13 16 16 19 23 23 16 16 16 16 13 16 23 19 29 35 32 32 45 45 45 39 45 39 45 35 45 45 39 35 39 45 58 52 55 55 58 52 45
3 3 6 16 16 10 13 10 16 19 16 16 16 19 16 19 23 19 26 32 32 29 23 35 42 35 35 32 32 39 32 26 29 29 32 35 48 45 48 55 45 48 42
0 3 3 13 10 10 10 10 10 13 13 13 13 13 16 16 19 26 26 26 29 26 23 23 39 32 29 32 35 35 29 26 23 26 35 39 48 55 45 39 35 39 42
0 3 3 6 6 10 13 13 10 13 16 13 13 13 13 10 16 19 19 23 26 23 23 23 26 29 29 26 26 35 26 29 23 23 32 39 45 42 32 32 42 42 42
3 3 3 3 3 6 10 10 13 13 16 13 13 13 10 13 23 16 10 19 19 23 23 16 19 19 16 19 29 26 26 26 23 23 19 35 39 42 42 39 45 42 42
3 3 3 3 0 3 3 0 6 10 6 6 6 3 6 10 6 3 3 10 13 13 13 16 16 16 16 23 29 32 26 32 19 23 29 32 39 45 35 42 42 42 42
3 3 3 3 3 3 3 0 0 0 0 0 3 3 3 3 0 3 3 6 13 6 6 3 10 16 19 26 26 23 19 23 19 23 29 35 42 42 35 35 32 39 32
3 3 3 3 3 3 0 0 0 0 0 0 3 3 3 3 3 3 0 3 3 3 3 3 6 6 10 16 16 10 16 13 26 23 26 39 39 45 39 35 32 32 32
3 3 0 3 3 0 0 0 0 0 0 0 0 0 3 0 0 0 3 3 0 0 3 3 3 3 3 16 19 16 10 16 23 26 19 29 35 32 32 35 35 32 32
0 0 0 0 0 0 0 0 0 0 0 0 0 0 0 0 0 0 0 0 0 0 3 3 10 6 10 6 13 13 13 13 23 26 26 32 32 32 32 32 35 35 32
0 0 0 0 0 0 0 0 0 0 0 0 3 0 0 0 0 0 0 0 0 0 0 10 6 3 6 6 6 10 10 10 13 10 26 23 23 26 35 35 35 32 32
0 0 0 0 0 0 0 0 0 0 3 0 3 0 0 0 0 0 0 0 0 0 3 3 3 10 10 13 16 10 10 13 16 13 16 19 16 19 23 35 32 26 26
0 0 0 0 0 0 0 0 0 0 0 0 3 0 0 0 0 0 0 0 0 0 3 3 0 10 13 16 13 16 19 13 10 13 13 16 13 10 23 23 16 23 23
0 0 0 0 0 0 0 0 0 0 3 0 0 3 0 0 0 0 0 0 0 0 3 3 3 10 13 16 10 13 19 19 6 3 6 13 13 10 10 6 6 6 13
0 0 0 0 0 0 0 0 0 0 3 0 0 0 0 0 0 0 0 0 0 3 6 0 3 0 10 13 13 16 10 13 10 6 3 6 10 10 6 6 6 6 6
0 0 0 0 0 0 0 0 0 0 0 0 0 0 0 0 0 0 0 0 0 0 10 6 16 16 10 6 0 6 13 16 10 13 6 10 3 3 3 3 3 0 3
0 0 0 0 0 0 0 0 0 0 0 0 0 0 0 0 0 0 0 0 0 0 0 0 3 10 6 3 6 6 6 6 13 16 10 3 3 0 3 0 0 0 3
0 0 0 0 0 0 0 0 0 0 0 0 3 0 0 3 3 0 3 0 0 0 0 0 0 10 0 0 3 6 3 10 10 6 6 6 0 0 0 0 0 0 3
3 0 0 0 0 0 0 0 0 0 0 0 0 0 0 3 3 0 0 0 0 0 3 0 0 0 6 3 0 0 6 6 13 3 3 0 3 3 0 0 0 0 0
3 3 3 0 0 0 0 0 0 0 0 0 0 0 0 0 0 0 0 0 0 0 0 0 0 3 6 6 3 3 6 3 3 6 6 6 3 0 0 0 0 0 0
3 3 3 3 0 0 0 0 0 0 0 0 0 0 0 0 3 0 0 0 0 0 0 0 3 6 6 6 10 6 0 6 3 3 3 3 0 0 0 0 0 0 0
3 3 3 3 3 0 0 0 0 0 0 0 0 0 0 0 0 0 0 0 0 0 0 0 0 3 6 6 10 10 6 3 3 0 3 0 3 0 0 0 0 0 0

GEFSSE_con_cape1000_186.txt.gz
Probability
16 16 35 39 35 35 39 29 26 39 32 32 29 29 39 52 55 55 58 48 61 61 55 58 65 68 61 58 65 58 65 71 58 58 61 61 61 68 71 68 61 74 84
3 6 39 42 35 26 26 29 35 32 23 35 19 19 26 32 42 48 48 42 48 45 48 48 61 58 58 55 48 45 48 48 42 45 48 48 68 71 71 58 55 68 68
3 10 26 39 26 23 16 19 23 29 23 16 13 23 19 23 32 39 45 42 35 35 35 39 35 39 42 45 35 39 35 39 42 45 45 35 55 68 61 61 58 61 65
3 3 13 26 16 23 16 16 16 19 16 19 16 16 23 23 23 29 29 32 39 32 32 29 26 39 35 39 45 45 39 39 42 52 29 32 35 55 58 58 61 58 58
6 3 13 26 13 16 16 16 19 19 10 10 13 10 19 19 23 23 29 29 32 35 29 32 29 32 32 39 39 29 29 35 45 42 26 23 32 65 58 55 52 45 45
6 3 6 19 19 19 13 16 16 13 13 6 6 10 16 16 16 26 23 26 19 19 23 23 23 35 19 32 32 26 32 39 32 26 32 32 32 48 52 35 42 39 42
6 6 6 13 16 16 13 13 6 6 10 10 13 13 16 19 19 23 23 23 23 19 23 19 16 16 23 26 29 23 26 26 26 26 26 32 35 39 39 39 39 45 42
3 3 6 10 16 13 13 10 13 10 10 16 16 16 19 19 19 23 16 19 19 23 26 23 19 19 16 26 29 23 23 35 23 16 23 29 42 39 42 42 42 39 42
3 3 3 3 3 10 6 10 10 13 13 13 13 19 19 19 16 19 16 19 19 16 13 13 13 10 16 23 16 16 19 35 26 23 16 19 39 39 42 39 42 39 35
0 0 3 3 3 3 3 3 6 3 6 6 10 13 23 19 10 13 16 16 10 10 10 10 6 13 13 16 13 16 23 29 19 10 16 29 39 35 29 35 35 35 35
0 0 0 3 3 3 3 3 3 3 3 3 3 3 6 0 0 3 6 10 3 6 6 0 6 13 16 13 13 19 13 3 16 10 13 48 39 35 35 39 29 35 35
0 0 0 3 3 3 0 0 0 0 0 0 0 0 0 0 0 3 6 0 0 3 3 0 10 6 3 0 3 6 3 0 10 10 16 45 35 32 29 23 32 32 35
0 0 0 0 0 0 0 0 3 3 3 0 0 0 0 0 3 3 0 0 0 0 0 0 3 0 0 3 3 3 3 3 3 10 16 39 39 26 29 32 35 35 29
0 0 0 0 0 0 0 0 0 0 0 0 0 0 0 0 0 3 0 0 0 0 0 3 0 0 3 3 3 3 3 3 0 10 13 39 35 35 29 29 29 39 29
0 0 0 0 0 0 0 0 0 0 0 0 3 0 0 0 0 0 0 0 0 0 3 3 3 3 3 3 3 0 0 0 3 6 10 19 23 26 32 26 26 32 29
0 0 0 0 0 0 0 0 0 0 0 0 0 0 0 0 3 3 0 0 0 0 0 3 3 3 3 3 0 0 0 0 0 6 6 10 10 13 16 19 23 26 26
0 0 0 0 0 0 0 0 0 0 0 0 0 0 0 0 0 0 0 3 3 0 0 0 0 3 3 0 0 0 6 6 3 0 6 6 6 13 16 16 16 16 19
0 0 0 0 0 0 0 0 0 0 0 0 0 3 3 0 0 3 3 3 3 3 0 3 0 0 0 0 0 0 6 6 3 0 0 6 6 6 10 10 10 10 13
0 0 0 0 0 0 0 0 0 0 0 0 0 3 3 3 3 0 3 3 3 0 0 0 0 0 0 0 3 0 0 0 3 0 0 6 6 6 6 3 10 10 6
0 0 0 0 0 0 0 0 0 0 0 0 3 3 3 3 3 3 3 3 3 3 0 0 3 0 0 0 0 0 0 0 3 0 0 3 3 6 6 6 3 3 6
0 0 0 0 0 0 0 0 0 0 0 0 3 3 3 3 3 3 3 3 3 3 3 3 0 0 0 0 0 0 0 0 3 3 0 0 0 0 0 0 3 3 0
0 0 0 0 0 0 0 0 0 0 0 0 0 3 3 3 3 3 3 3 3 3 3 3 0 0 0 0 0 0 0 0 0 3 3 3 0 0 0 0 0 0 0
0 0 0 0 0 0 0 0 0 0 0 0 0 3 3 0 3 3 3 3 3 3 0 0 0 0 0 0 0 0 0 0 0 0 3 3 0 0 0 0 0 0 0
0 0 0 3 3 0 0 0 0 0 0 0 0 3 3 3 3 3 0 3 0 3 3 0 3 0 0 0 0 0 0 0 0 0 0 0 3 0 0 0 0 0 0
3 3 3 3 3 3 0 0 0 0 0 0 0 0 0 3 3 0 0 0 0 0 0 0 3 0 0 0 0 0 0 0 0 0 0 0 0 0 0 0 0 0 0
6 6 3 3 3 3 3 0 0 0 0 0 0 0 0 0 0 0 0 0 0 0 0 0 0 0 0 0 0 0 0 0 0 0 0 0 0 0 0 0 0 0 0

GEFSSE_con_cape1000_192.txt.gz
Probability
6 19 32 39 45 45 48 48 48 48 58 58 61 55 55 55 55 61 68 68 61 65 65 58 71 61 55 61 61 61 65 61 61 58 55 68 68 65 68 61 65 55 65
10 29 32 32 42 45 45 45 45 42 48 48 48 48 42 45 52 52 52 45 55 55 58 58 68 58 55 55 52 55 52 42 52 48 52 61 74 68 68 65 61 58 61
13 19 32 39 32 45 45 45 39 39 39 39 45 39 35 39 39 42 42 42 39 42 45 55 58 42 39 45 52 48 45 48 52 39 42 29 48 65 65 65 58 61 61
10 13 26 29 29 32 35 32 32 32 42 32 29 35 32 39 35 45 35 39 35 39 35 35 39 26 32 32 42 39 39 45 39 32 13 23 29 45 48 55 58 48 52
6 13 26 32 23 23 26 26 19 29 26 32 26 32 32 29 35 35 32 32 35 35 26 29 19 26 26 35 32 35 39 35 32 23 13 16 23 48 55 45 48 55 42
6 10 29 26 23 26 23 26 23 23 16 19 26 29 35 29 35 32 26 32 35 29 23 19 19 23 26 29 29 29 35 32 23 13 19 26 26 45 45 42 42 35 45
3 6 13 26 26 26 23 23 13 13 13 19 23 23 26 23 35 35 26 29 29 26 23 19 23 26 23 23 23 29 26 32 13 13 16 19 26 48 45 45 35 39 39
3 3 6 23 26 23 19 16 13 13 16 13 26 23 19 26 26 32 26 26 23 26 23 23 23 19 19 26 29 35 26 26 16 16 19 19 23 35 39 32 32 32 32
3 0 0 6 6 13 13 13 13 16 19 23 19 16 19 23 23 26 29 23 19 19 16 10 19 23 23 19 29 32 26 29 6 10 23 26 35 35 32 32 35 26 32
3 0 0 3 3 3 6 13 16 13 16 16 19 19 19 23 19 19 13 16 13 10 6 3 13 19 23 19 23 19 23 6 3 6 10 23 29 29 26 29 32 29 35
0 0 0 0 3 3 3 6 10 10 13 6 10 10 10 0 0 6 6 13 6 3 0 0 10 19 19 16 19 13 6 0 3 6 10 26 26 23 26 32 35 32 23
0 0 0 0 0 0 0 0 0 0 0 0 0 0 0 0 0 0 6 6 3 3 0 3 6 3 0 0 0 0 0 0 3 6 13 23 26 26 26 23 29 19 16
0 0 0 0 0 0 0 0 0 0 0 0 0 0 0 0 0 0 0 3 3 0 0 0 0 0 0 0 0 0 0 0 3 6 16 35 26 26 32 23 19 19 19
0 0 0 0 0 0 0 0 0 0 0 0 0 0 0 0 0 0 0 0 0 0 0 0 0 0 0 0 0 0 0 0 3 3 13 26 19 26 23 23 23 19 19
0 0 0 0 0 0 0 0 0 0 0 0 0 0 0 0 0 0 0 0 0 0 0 0 0 0 0 0 0 0 0 0 6 6 6 16 19 26 23 23 23 19 16
0 0 0 0 0 0 0 0 0 0 0 0 0 0 0 0 0 0 0 0 0 0 0 0 0 0 0 0 0 0 0 0 3 6 6 6 19 23 23 19 16 16 16
0 0 0 0 0 0 0 0 0 0 0 0 0 0 0 0 0 0 0 0 0 0 0 0 0 0 0 0 0 0 0 0 0 0 3 6 13 13 19 19 13 10 16
0 0 0 0 0 0 0 0 0 0 0 0 0 0 0 0 0 0 0 0 0 0 0 0 0 0 0 0 0 0 0 0 0 0 0 3 3 3 6 6 13 13 13
0 0 0 0 0 0 0 0 0 0 0 0 0 0 0 0 0 0 0 0 0 0 0 0 0 0 0 0 0 0 0 0 0 0 0 0 3 3 3 10 13 6 6
0 0 0 0 0 0 0 0 0 0 0 0 0 0 0 0 0 0 0 0 0 0 0 0 0 0 0 0 0 0 0 0 0 0 0 0 0 0 0 3 0 0 6
0 0 0 0 0 0 0 0 0 0 0 0 0 0 0 0 0 0 0 0 0 0 0 0 0 0 0 0 0 0 0 0 0 0 0 0 0 0 0 0 0 0 0
0 0 0 0 0 0 0 0 0 0 0 0 0 0 0 0 0 0 0 0 0 0 0 0 0 0 0 0 0 0 0 0 0 0 0 0 0 0 0 0 0 0 0
0 0 0 0 0 0 0 0 0 0 0 0 0 0 0 0 0 0 0 0 0 0 0 0 0 0 0 0 0 0 0 0 0 0 0 0 0 0 0 0 0 0 0
0 0 0 0 0 0 0 0 0 0 0 0 0 0 0 0 0 0 0 0 0 0 0 0 0 0 0 0 0 0 0 0 0 0 0 0 0 0 0 0 0 0 0
0 0 0 0 0 0 0 0 0 0 0 0 0 0 0 0 0 0 0 0 0 0 0 0 0 0 0 0 0 0 0 0 0 0 0 0 0 0 0 0 0 0 0
0 0 0 0 0 3 0 0 0 0 0 0 0 0 0 0 0 0 0 0 0 0 0 0 0 0 0 0 0 0 0 0 0 0 0 0 0 0 0 0 0 0 0

GEFSSE_con_cape1000_198.txt.gz
Probability
0 6 16 23 32 42 42 45 48 48 48 52 65 61 65 68 65 68 71 65 68 65 68 61 61 61 61 58 61 65 65 58 58 58 65 61 58 65 61 61 58 58 61
3 10 23 23 29 29 32 39 42 35 35 45 58 55 52 61 61 65 61 61 61 58 65 61 61 55 55 58 65 61 55 65 68 58 55 61 61 61 68 61 52 55 61
10 13 13 19 32 29 23 26 29 29 23 26 32 39 39 39 39 52 55 58 52 52 45 48 55 52 55 55 45 52 48 52 52 58 48 35 39 52 55 55 55 58 48
6 10 10 16 19 19 19 23 26 23 23 26 26 32 32 42 42 42 52 48 39 45 42 42 42 42 42 45 42 45 52 55 45 42 23 26 29 55 48 52 48 45 48
6 6 10 16 19 19 19 23 19 16 16 19 23 32 35 39 42 35 39 39 29 35 35 26 23 35 32 29 42 42 48 48 39 19 13 16 26 48 42 42 45 39 52
3 10 13 19 19 16 19 19 19 19 23 23 19 29 35 39 35 35 26 29 29 19 23 19 23 29 29 29 39 39 42 39 19 13 13 13 19 42 39 42 48 39 45
3 6 10 16 13 13 13 23 19 19 16 23 19 26 29 32 26 26 19 23 19 16 16 19 23 23 32 29 35 42 39 39 6 10 13 19 19 45 39 35 45 39 42
3 3 10 10 16 16 13 10 13 13 16 16 23 26 26 26 26 19 19 13 16 16 19 23 23 23 29 32 32 35 42 23 13 10 10 16 29 35 32 39 35 32 32
0 3 3 6 10 13 13 13 13 13 13 16 19 19 23 26 23 19 19 13 13 13 16 19 23 26 29 42 39 39 35 26 3 3 10 13 26 29 29 32 32 29 29
0 0 0 0 3 3 3 6 10 10 13 10 13 16 13 10 13 6 13 6 3 10 10 19 23 23 29 32 29 26 16 10 3 6 6 16 23 26 29 23 26 23 26
0 0 0 0 0 0 3 3 3 3 3 3 6 13 3 0 0 0 3 3 3 6 13 16 19 16 16 10 16 16 6 0 3 6 10 23 29 26 26 23 23 16 19
0 0 0 0 0 0 0 0 0 3 0 0 0 0 0 0 0 0 3 3 10 3 10 10 10 3 0 0 3 3 0 0 0 6 16 26 23 23 23 26 19 16 19
0 0 0 0 0 0 0 0 0 0 0 0 0 0 0 0 0 0 0 0 0 0 0 0 0 0 0 0 0 0 3 0 0 0 6 16 19 13 16 23 16 16 13
0 0 0 0 0 0 0 0 0 0 0 0 0 0 0 0 0 0 0 0 0 0 0 0 0 0 0 0 0 0 0 0 0 0 3 16 16 13 19 19 19 16 13
0 0 0 0 0 0 0 0 0 0 0 0 0 0 0 0 0 0 0 0 0 0 0 0 0 0 0 0 0 0 0 0 0 0 0 13 16 19 23 19 19 19 19
0 0 0 0 0 0 0 0 0 0 0 0 0 0 0 0 0 0 0 0 0 0 0 0 0 0 0 0 0 0 0 0 0 0 0 6 10 13 19 19 19 19 19
0 0 0 0 0 0 0 0 0 0 0 0 0 0 0 0 0 0 0 0 0 0 0 0 0 0 0 0 0 0 0 0 0 0 0 3 3 13 13 16 16 13 16
0 0 0 0 0 0 0 0 0 0 0 0 0 0 0 0 0 0 0 0 0 0 0 0 0 0 0 0 0 0 0 0 0 0 0 0 0 0 0 6 3 10 10
0 0 0 0 0 0 0 0 0 0 0 0 0 0 0 0 0 0 0 0 0 0 0 0 0 0 0 0 0 0 0 0 0 0 0 0 0 0 0 0 3 3 3
0 0 0 0 0 0 0 0 0 0 0 0 0 0 0 0 0 0 0 0 0 0 0 0 0 0 0 0 0 0 0 0 0 0 0 0 0 0 0 0 0 0 3
0 0 0 0 0 0 0 0 0 0 0 0 0 0 0 0 0 0 0 0 0 0 0 0 0 0 0 0 0 0 0 0 0 0 0 0 0 0 0 0 0 0 0
0 0 0 0 0 0 0 0 0 0 0 0 0 0 0 0 0 0 0 0 0 0 0 0 0 0 0 0 0 0 0 0 0 0 0 0 0 0 0 0 0 0 0
0 0 0 0 0 0 0 0 0 0 0 0 0 0 0 0 0 0 0 0 0 0 0 0 0 0 0 0 0 0 0 0 0 0 0 0 0 0 0 0 0 0 0
0 0 0 0 0 0 0 0 0 0 0 0 0 0 0 0 0 0 0 0 0 0 0 0 0 0 0 0 0 0 0 0 0 0 0 0 0 0 0 0 0 0 0
0 0 0 0 0 0 0 0 0 0 0 0 0 0 0 0 0 0 0 0 0 0 0 0 0 0 0 0 0 0 0 0 0 0 0 0 0 0 0 0 0 0 0
0 0 0 0 0 0 0 0 0 0 0 0 0 0 0 0 0 0 0 0 0 0 0 0 0 0 0 0 0 0 0 0 0 0 0 0 0 0 0 0 0 0 0

GEFSSE_con_cape1000_204.txt.gz
Probability
6 10 16 23 16 16 26 32 35 39 42 35 42 45 45 52 45 48 55 55 58 65 65 61 61 61 58 58 65 58 55 61 55 58 58 58 58 58 65 65 65 65 61
3 6 10 23 19 19 23 23 26 32 26 29 35 45 42 45 55 45 42 52 55 65 65 55 61 61 58 55 58 61 61 68 68 58 48 52 55 58 58 48 55 65 55
3 6 10 13 16 16 26 23 19 19 19 23 23 32 32 32 39 32 32 45 45 52 48 55 52 52 52 58 61 61 55 52 55 48 42 52 55 58 58 58 61 55 48
3 6 3 13 13 16 19 16 16 19 23 26 19 23 35 32 29 26 23 26 26 26 32 39 45 45 42 45 48 48 45 39 32 35 35 39 42 52 55 52 48 48 45
3 6 6 13 16 13 16 10 10 16 19 19 23 23 26 26 23 19 16 23 26 23 23 26 39 48 39 39 42 42 39 32 29 35 39 42 48 42 39 42 52 39 42
3 3 6 13 13 10 6 6 10 16 16 13 26 26 16 29 19 23 19 23 23 23 19 23 29 32 32 32 29 32 35 26 32 32 42 39 39 42 45 39 45 39 32
3 3 6 10 13 6 6 6 10 10 6 10 10 16 3 16 19 16 19 16 13 13 23 23 23 26 29 29 39 29 29 29 29 29 32 39 35 32 29 39 39 39 42
3 0 0 10 16 10 10 10 6 13 13 16 6 3 6 6 6 6 16 10 10 10 16 23 23 29 26 35 39 26 26 26 16 16 26 29 29 32 29 35 39 35 39
0 0 0 3 0 13 19 16 10 6 6 13 10 3 3 6 10 6 10 10 13 19 16 23 23 29 35 35 29 29 19 26 19 26 16 26 19 23 23 23 23 26 26
3 0 3 3 0 3 6 13 16 10 10 10 3 3 3 6 6 10 6 16 13 16 13 13 19 19 19 19 16 16 16 13 16 10 13 16 26 26 23 23 23 23 23
3 6 0 0 0 3 6 3 10 6 6 6 3 3 3 0 3 3 3 13 10 10 6 6 6 10 10 10 13 13 10 13 13 13 10 16 13 13 16 19 16 23 16
6 6 3 3 3 0 0 0 6 3 10 0 3 6 6 3 3 3 10 10 10 6 6 6 6 6 3 6 3 3 3 6 6 6 13 13 13 13 16 10 16 16 10
6 6 3 3 3 3 3 3 3 6 10 6 0 6 6 3 3 3 10 3 3 3 3 3 3 3 3 6 6 3 3 6 10 6 10 10 10 13 13 16 23 13 13
3 3 0 3 6 0 3 3 3 6 6 6 3 3 6 13 3 3 10 6 3 3 3 3 6 3 3 3 6 6 6 10 10 3 10 10 10 13 13 16 19 16 13
3 3 0 3 3 3 3 3 3 3 0 3 3 0 3 6 0 0 3 3 3 3 3 10 6 6 6 6 6 6 3 3 3 0 3 3 6 13 16 16 16 19 16
3 3 0 0 3 3 3 0 3 3 0 0 3 3 0 0 0 0 0 0 3 3 3 3 6 10 10 10 6 3 3 0 3 3 3 6 10 13 16 16 23 19 16
3 3 0 0 3 3 0 0 0 0 3 3 3 0 0 0 0 0 0 0 3 3 6 6 6 10 10 10 3 0 3 0 3 3 3 6 6 6 10 16 16 10 13
3 0 3 3 3 3 0 0 3 3 3 3 0 0 0 0 0 0 0 3 3 3 6 6 6 3 6 3 0 0 0 0 0 0 3 10 10 3 3 0 3 6 10
3 3 3 3 3 3 0 0 3 3 3 3 0 0 0 0 0 0 0 3 3 3 3 3 3 3 6 3 0 0 3 0 0 0 3 0 0 0 3 0 0 0 6
6 6 6 6 3 3 0 0 0 0 0 3 3 0 0 0 0 0 0 0 3 6 10 6 10 10 6 3 0 0 0 3 3 3 0 0 0 0 0 0 0 0 3
6 6 6 6 6 6 0 3 6 3 0 3 3 0 0 0 0 0 0 0 0 3 3 3 3 3 0 0 0 3 3 0 0 0 3 0 0 0 0 0 0 0 0
6 6 6 6 3 3 0 0 0 0 0 0 0 0 0 0 0 0 0 0 0 10 6 3 3 6 0 0 3 6 0 0 0 0 3 3 0 3 0 0 0 0 0
6 6 6 6 3 3 0 0 0 0 0 3 0 0 0 0 0 3 0 0 0 6 3 3 3 3 10 6 3 0 0 0 0 3 0 0 0 0 3 3 0 0 3
3 6 3 3 3 0 0 0 0 0 0 0 0 0 0 0 0 0 3 0 0 3 3 3 3 6 10 6 3 0 0 0 0 0 0 0 0 0 0 0 0 3 3
3 3 0 0 0 0 0 0 0 0 0 0 0 0 0 0 0 3 0 0 0 0 0 0 3 3 10 10 6 3 3 3 0 0 0 0 0 0 0 0 0 0 0
3 3 0 0 0 0 0 0 0 0 0 0 0 0 0 3 3 0 0 0 0 0 0 0 0 0 0 0 6 6 6 3 0 0 0 0 0 0 0 0 0 0 0

GEFSSE_con_cape1000_210.txt.gz
Probability
23 19 29 29 35 32 23 23 32 32 35 32 32 39 35 42 42 42 42 48 48 45 48 52 55 55 58 58 61 65 58 52 52 58 68 65 61 61 65 65 71 65 65
13 13 29 26 26 29 26 26 35 35 26 32 32 32 32 29 26 29 42 42 39 42 39 42 58 58 61 58 58 55 45 48 48 55 61 58 58 61 65 58 61 58 65
10 10 16 23 23 19 19 26 19 23 29 29 29 26 26 29 29 29 32 32 39 35 35 42 42 42 39 45 48 55 45 32 35 45 55 55 61 58 58 55 48 52 52
10 10 10 19 23 23 13 19 13 16 16 26 19 19 19 23 19 26 26 23 19 19 26 39 29 32 39 39 39 35 32 35 48 48 32 39 29 52 48 48 48 42 42
10 10 13 19 16 10 13 16 13 10 13 13 19 6 13 16 16 19 23 23 23 19 19 23 26 39 39 32 35 39 39 52 55 42 26 32 32 48 48 42 39 39 39
6 6 10 19 13 6 6 13 6 10 10 13 10 6 6 13 6 13 23 23 19 19 23 23 26 26 35 39 39 39 35 48 35 29 29 26 32 39 45 45 39 39 29
6 3 10 16 10 10 10 6 6 10 10 10 10 3 6 10 13 13 16 19 16 23 23 23 26 19 29 29 29 32 29 39 26 26 23 19 23 35 32 26 26 29 29
6 3 3 16 13 10 6 3 6 6 6 10 0 6 6 13 16 16 16 19 13 16 23 19 26 23 23 26 26 23 26 32 13 10 10 13 23 19 23 26 23 19 26
6 6 0 3 6 16 6 6 6 3 3 3 0 0 6 10 16 16 16 19 23 16 16 13 16 16 10 13 16 16 26 29 10 10 10 10 19 19 26 26 23 19 19
6 6 6 6 0 6 3 6 6 6 6 6 0 0 6 10 13 6 10 23 19 16 10 10 10 13 13 10 6 3 16 16 3 3 6 10 23 19 19 19 13 19 16
6 6 6 6 3 6 3 3 6 6 6 3 0 6 3 0 0 3 3 10 13 6 6 6 10 13 6 3 3 6 6 0 0 3 3 13 16 16 13 13 13 13 13
3 6 6 6 6 6 3 0 3 3 0 0 3 3 0 0 0 0 3 3 10 6 6 10 10 10 3 3 3 3 0 0 0 0 3 13 10 10 10 13 19 16 13
3 3 0 0 3 6 6 6 3 3 0 0 3 3 0 0 0 0 0 3 3 3 0 0 3 3 3 3 0 0 0 0 0 0 6 16 3 10 10 13 10 13 10
3 3 3 0 3 3 6 6 6 3 3 0 3 3 0 0 0 0 0 3 3 0 0 0 0 3 3 3 0 0 0 0 0 0 3 16 10 6 13 10 10 10 13
3 3 3 3 3 3 3 3 3 3 0 3 6 3 0 0 0 0 0 0 0 0 0 3 6 6 6 6 3 0 0 0 0 0 0 6 10 10 6 10 13 16 13
3 3 3 3 3 3 3 0 6 0 0 3 3 0 0 0 0 0 0 0 0 0 0 0 6 3 3 0 0 0 0 0 3 3 3 3 10 13 6 10 16 13 10
3 3 3 3 3 0 0 0 0 3 3 0 0 0 0 0 0 0 0 0 0 3 3 6 3 0 0 0 0 0 0 0 0 0 3 3 3 3 10 6 6 13 13
3 3 3 0 0 0 0 0 0 0 0 0 0 0 0 0 0 0 0 0 0 0 3 0 0 0 0 0 0 0 0 0 0 0 0 0 0 0 3 10 6 6 10
0 0 0 0 0 0 0 0 3 0 0 0 0 0 0 0 0 0 0 0 0 0 0 0 3 0 0 0 0 0 0 0 0 0 0 0 0 0 0 0 0 0 3
0 0 0 0 0 0 0 0 0 0 0 0 0 0 0 0 0 0 0 0 0 0 0 0 0 0 0 0 0 0 0 0 0 0 0 0 0 0 0 0 0 0 0
3 0 0 3 3 3 3 3 0 3 0 0 0 0 0 0 0 0 0 3 0 0 0 0 0 0 0 0 0 0 0 0 0 0 0 0 0 0 0 0 0 0 0
3 3 3 3 3 3 3 3 6 3 0 3 0 0 0 0 0 0 0 0 3 0 0 0 0 0 0 0 0 0 0 0 0 0 0 0 0 0 0 0 0 0 0
0 3 3 0 0 3 3 3 3 3 3 0 0 0 0 0 0 0 0 0 0 0 0 0 0 0 3 0 0 0 0 0 0 0 0 0 0 0 0 0 0 0 0
0 0 0 0 0 0 3 3 3 3 3 3 3 0 0 0 0 0 0 0 0 0 0 0 3 3 0 0 0 0 0 0 0 0 0 0 0 0 0 0 0 0 0
0 0 0 0 3 3 3 3 3 3 3 3 3 3 3 0 0 0 0 0 0 0 0 0 0 0 0 0 0 0 0 0 0 0 0 0 0 0 0 0 0 3 3
0 0 0 0 0 0 0 0 0 0 3 3 3 3 3 3 0 0 0 0 0 0 0 0 0 0 0 0 0 0 0 0 0 0 0 0 0 0 0 0 0 0 0

GEFSSE_con_cape1000_216.txt.gz
Probability
6 16 29 39 39 39 42 32 42 39 48 48 52 45 42 42 35 48 52 52 48 55 55 58 61 61 71 68 68 71 81 81 77 74 68 71 74 74 71 71 58 58 55
10 19 35 29 29 32 35 32 29 32 35 39 52 52 42 45 32 35 42 42 45 48 55 48 45 55 58 65 65 65 61 61 74 74 65 65 68 61 68 61 65 48 52
13 16 16 23 23 26 26 26 26 26 29 35 42 48 48 35 29 32 29 32 42 48 48 48 45 52 48 45 55 52 42 58 55 55 45 32 48 58 58 52 58 48 52
13 13 16 23 26 23 26 23 29 29 26 26 23 35 35 26 26 29 35 39 32 35 32 32 35 35 45 52 55 48 52 58 52 32 19 16 26 58 48 45 42 42 45
3 10 16 16 16 16 23 23 23 23 23 26 23 23 32 29 26 23 35 23 29 26 23 29 39 35 42 42 45 48 39 48 35 26 6 6 16 42 39 39 39 35 39
3 3 13 13 16 13 13 13 13 16 16 16 23 26 23 19 23 26 32 29 26 26 23 23 35 32 32 32 32 39 39 29 13 3 6 13 19 29 32 32 32 26 26
3 6 13 23 13 13 10 16 13 13 16 23 23 16 16 19 19 19 23 23 26 26 23 23 35 35 19 29 32 35 32 23 3 0 0 6 19 32 26 29 35 29 26
3 6 6 23 19 13 16 13 13 13 13 10 13 10 13 23 19 19 19 23 23 23 26 23 26 19 16 26 26 29 19 19 3 3 3 10 26 29 26 26 26 26 29
3 3 6 3 13 19 19 16 10 6 13 6 10 10 10 13 10 16 23 23 16 16 16 13 19 19 23 19 23 19 19 13 0 3 10 13 26 32 26 23 23 26 19
3 3 3 3 3 3 3 13 3 6 10 10 6 10 10 10 10 13 10 13 13 10 16 13 13 13 13 13 13 13 10 3 0 0 3 13 26 26 23 19 23 16 23
3 3 3 3 3 3 3 3 3 6 6 6 0 6 0 0 0 3 3 13 3 3 6 13 10 10 13 13 10 3 0 0 0 0 3 13 16 13 16 13 19 16 13
0 0 0 0 3 3 3 3 3 3 3 0 0 0 0 0 0 3 3 6 6 6 10 6 3 3 3 3 3 0 0 0 0 0 3 16 16 10 10 16 13 10 6
3 0 0 0 0 0 0 0 0 0 0 0 0 0 0 0 0 0 0 0 0 0 0 0 0 0 0 0 0 0 0 0 0 0 6 19 10 6 13 10 10 6 6
0 0 0 0 0 0 0 0 0 0 0 0 0 0 0 0 0 0 0 0 0 0 0 0 0 0 0 0 0 0 0 0 0 0 0 16 10 10 10 10 3 6 10
0 0 0 0 0 0 0 0 0 0 0 0 0 0 0 0 0 0 0 0 0 0 0 0 0 0 0 0 0 0 0 0 0 0 0 10 10 10 10 6 0 6 10
0 0 0 0 0 0 0 0 0 0 0 0 0 0 0 0 0 0 0 0 0 0 0 0 0 0 0 0 0 0 0 0 0 0 0 6 10 10 13 6 10 6 13
0 0 0 0 0 0 0 0 0 0 0 0 0 0 0 0 0 0 0 0 0 0 0 0 0 0 0 0 0 0 0 0 0 0 0 0 0 10 6 3 10 10 6
0 0 0 0 0 0 0 0 0 0 0 0 0 0 0 0 0 0 0 0 0 0 0 0 0 0 0 0 0 0 0 0 0 0 0 0 0 0 0 6 6 3 10
0 0 0 0 0 0 0 0 0 0 0 0 0 0 0 0 0 0 0 0 0 0 0 0 0 0 0 0 0 0 0 0 0 0 0 0 0 0 0 0 0 3 6
0 0 0 0 0 0 0 0 0 0 0 0 0 0 0 0 0 0 0 0 0 0 0 0 0 0 0 0 0 0 0 0 0 0 0 0 0 0 0 0 0 0 0
0 0 0 0 0 0 0 0 0 0 0 0 0 0 0 0 0 0 0 0 0 0 0 0 0 0 0 0 0 0 0 0 0 0 0 0 0 0 0 0 0 0 0
0 0 0 0 0 0 0 0 0 0 0 0 0 0 0 0 0 0 0 0 0 0 0 0 0 0 0 0 0 0 0 0 0 0 0 0 0 0 0 0 0 0 0
0 0 0 0 0 0 0 0 0 0 0 0 0 0 0 0 0 0 0 0 0 0 0 0 0 0 0 0 0 0 0 0 0 0 0 0 0 0 0 0 0 0 0
0 0 0 0 0 0 0 0 0 0 0 0 0 0 0 0 0 0 0 0 0 0 0 0 0 0 0 0 0 0 0 0 0 0 0 0 0 0 0 0 0 0 0
0 0 0 0 0 0 0 0 0 0 0 0 0 0 0 0 0 0 0 0 0 0 0 0 0 0 0 0 0 0 0 0 0 0 0 0 0 0 0 0 0 0 0
0 0 0 0 0 0 0 0 0 0 0 0 0 0 0 0 0 0 0 0 0 0 0 0 0 0 0 0 0 0 0 0 0 0 0 0 0 0 0 0 0 0 0

GEFSSE_con_cape1000_222.txt.gz
Probability
0 6 16 23 23 26 29 23 32 35 35 32 39 35 39 35 39 55 52 48 52 48 58 68 71 71 65 74 77 81 84 87 87 77 77 81 81 74 68 61 58 55 55
6 10 16 26 23 19 26 32 23 29 35 35 32 35 45 39 39 45 42 45 52 45 48 68 74 65 58 77 77 77 77 77 77 71 71 58 71 68 68 58 58 48 55
6 10 13 23 23 19 23 16 19 23 32 32 29 35 39 32 29 35 29 39 48 39 39 55 45 58 65 71 71 65 74 74 68 65 48 26 45 65 55 55 52 58 55
6 6 6 16 16 19 19 16 19 19 23 23 26 23 32 29 26 32 29 35 39 39 42 45 42 52 52 55 61 58 65 65 58 32 6 16 19 55 55 52 55 39 52
6 6 6 16 13 16 19 26 23 16 16 19 23 19 26 26 32 29 32 32 35 32 32 32 42 48 39 48 45 48 45 42 32 6 3 3 6 35 35 32 42 42 42
6 3 6 6 10 10 10 16 10 13 13 13 23 29 29 23 23 26 32 26 29 26 29 29 35 32 32 29 39 42 32 26 10 0 3 6 10 32 35 39 35 39 32
0 3 3 10 10 13 13 10 6 10 10 10 19 16 26 26 23 19 19 26 29 29 29 26 26 32 35 35 29 29 23 23 0 0 0 6 19 39 32 29 29 26 29
0 3 3 6 10 16 10 10 6 6 10 10 13 16 19 23 26 23 13 16 23 23 23 19 19 26 26 29 29 29 16 6 0 0 3 3 19 29 26 29 26 23 29
3 3 3 3 3 13 10 10 10 6 6 6 13 13 16 16 19 16 10 16 16 19 19 13 13 16 26 26 26 26 6 3 0 0 0 6 19 23 19 26 29 29 16
3 3 3 3 3 3 3 6 6 6 3 6 13 16 10 6 10 23 6 13 6 3 10 10 13 16 13 13 10 10 3 0 0 0 0 10 23 26 19 16 19 19 23
3 3 3 3 3 3 3 3 3 3 3 3 3 3 0 0 0 0 3 16 10 0 0 3 10 10 6 10 6 3 0 0 0 0 0 16 16 16 13 13 13 16 13
0 3 3 3 3 3 3 3 3 3 0 0 0 0 0 0 0 0 3 3 6 3 0 3 3 0 0 0 0 0 0 0 0 0 3 13 13 10 6 6 3 0 0
0 0 0 3 3 3 0 0 0 0 0 0 0 0 0 0 0 0 0 0 0 0 0 3 0 0 0 0 0 0 0 0 0 0 3 16 13 3 3 3 6 0 3
0 0 0 0 0 0 0 0 0 0 0 0 0 0 0 0 0 0 0 0 0 0 0 0 0 0 0 0 0 0 0 0 0 0 0 13 19 6 6 6 3 6 3
0 0 0 0 0 0 0 0 0 0 0 0 0 0 0 0 0 0 0 0 0 0 0 0 0 0 0 0 0 0 0 0 0 0 0 3 6 10 10 6 3 6 10
0 0 0 0 0 0 0 0 0 0 0 0 0 0 0 0 0 0 0 0 0 0 0 0 0 0 0 0 0 0 0 0 0 0 0 0 6 10 10 6 6 6 10
0 0 0 0 0 0 0 0 0 0 0 0 0 0 0 0 0 0 0 0 0 0 0 0 0 0 0 0 0 0 0 0 0 0 0 0 0 3 6 10 6 13 10
0 0 0 0 0 0 0 0 0 0 0 0 0 0 0 0 0 0 0 0 0 0 0 0 0 0 0 0 0 0 0 0 0 0 0 0 0 0 0 3 6 13 6
0 0 0 0 0 0 0 0 0 0 0 0 0 0 0 0 0 0 0 0 0 0 0 0 0 0 0 0 0 0 0 0 0 0 0 0 0 0 0 0 0 3 13
0 0 0 0 0 0 0 0 0 0 0 0 0 0 0 0 0 0 0 0 0 0 0 0 0 0 0 0 0 0 0 0 0 0 0 0 0 0 0 0 0 0 0
0 0 0 0 0 0 0 0 0 0 0 0 0 0 0 0 0 0 0 0 0 0 0 0 0 0 0 0 0 0 0 0 0 0 0 0 0 0 0 0 0 0 0
0 0 0 0 0 0 0 0 0 0 0 0 0 0 0 0 0 0 0 0 0 0 0 0 0 0 0 0 0 0 0 0 0 0 0 0 0 0 0 0 0 0 0
0 0 0 0 0 0 0 0 0 0 0 0 0 0 0 0 0 0 0 0 0 0 0 0 0 0 0 0 0 0 0 0 0 0 0 0 0 0 0 0 0 0 0
0 0 0 0 0 0 0 0 0 0 0 0 0 0 0 0 0 0 0 0 0 0 0 0 0 0 0 0 0 0 0 0 0 0 0 0 0 0 0 0 0 0 0
0 0 0 0 0 0 0 0 0 0 0 0 0 0 0 0 0 0 0 0 0 0 0 0 0 0 0 0 0 0 0 0 0 0 0 0 0 0 0 0 0 0 0
0 0 0 0 0 0 0 0 0 0 0 0 0 0 0 0 0 0 0 0 0 0 0 0 0 0 0 0 0 0 0 0 0 0 0 0 0 0 0 0 0 0 0

GEFSSE_con_cape1000_228.txt.gz
Probability
3 6 10 16 19 19 13 26 23 29 16 16 23 29 29 39 45 52 48 45 45 52 52 58 65 61 65 65 65 68 77 84 81 81 74 74 81 74 68 55 58 65 58
3 6 6 16 16 23 23 26 19 16 16 19 23 26 29 29 26 48 45 42 45 45 52 55 58 65 65 68 68 68 74 71 74 74 77 74 77 65 61 61 65 61 58
0 6 6 10 10 23 26 26 19 16 16 16 26 23 29 26 26 23 29 42 39 48 52 61 55 55 65 61 65 61 65 68 68 58 65 65 65 55 58 55 55 52 52
0 6 6 16 16 16 19 19 19 13 23 13 19 19 26 26 26 32 39 42 39 42 48 45 48 52 52 52 48 55 52 42 26 26 23 29 45 48 48 42 42 52 52
3 3 3 13 19 16 16 16 13 13 16 10 10 16 23 19 26 26 29 35 35 39 42 39 35 35 35 39 45 39 29 29 19 10 16 35 55 45 39 39 42 39 39
3 3 3 6 6 13 16 13 13 13 13 13 23 13 16 23 26 23 23 29 32 32 29 29 23 29 29 32 32 23 23 23 16 13 26 26 35 32 35 32 32 35 29
3 3 3 6 13 10 13 16 13 10 10 13 19 19 16 16 13 23 32 23 26 19 19 16 19 13 23 19 19 23 19 19 10 13 19 16 35 39 35 35 35 32 23
3 0 3 3 3 3 6 16 13 10 10 13 19 19 19 13 13 13 26 19 19 13 10 10 10 6 10 16 13 13 19 13 6 3 10 23 19 35 29 23 19 16 19
3 0 3 3 3 3 3 3 3 10 13 19 16 19 13 19 13 10 16 13 0 0 0 3 10 3 13 13 13 6 3 3 3 6 6 19 23 26 16 19 26 26 26
6 3 3 3 3 3 3 3 3 6 10 10 6 6 6 10 6 6 6 13 6 0 0 3 10 3 6 10 6 6 3 0 6 6 19 19 23 16 16 16 19 16 26
6 3 3 3 3 6 3 3 6 6 6 6 3 3 6 6 6 6 6 10 3 0 0 0 6 0 3 6 6 3 0 3 3 10 19 16 13 13 10 6 6 6 10
3 3 3 3 6 6 3 3 3 0 6 3 0 0 3 6 6 6 6 3 3 0 0 0 0 0 0 0 0 0 0 0 0 0 13 13 10 6 6 6 0 3 6
3 3 3 3 6 6 6 3 3 10 6 3 0 0 3 6 6 6 6 6 6 0 0 0 0 0 0 0 0 0 0 0 0 0 6 16 10 10 10 10 3 3 3
6 3 3 6 6 3 3 6 3 3 6 6 3 0 3 6 6 6 3 3 6 3 0 0 0 0 0 0 0 0 0 3 0 0 3 6 13 3 6 6 6 10 6
10 3 3 3 3 3 3 3 3 3 3 3 6 3 3 3 3 0 3 3 3 6 0 0 0 0 0 0 0 0 0 0 0 0 3 0 6 6 6 6 6 10 3
6 6 3 3 3 3 3 3 3 3 3 0 3 0 0 0 0 3 3 3 3 3 3 3 0 0 0 0 0 0 0 0 0 0 0 0 3 6 6 6 3 3 6
3 3 3 3 3 3 3 3 3 3 3 3 3 3 0 0 0 0 3 3 3 3 0 0 0 0 0 0 0 0 0 0 0 0 0 0 0 3 3 6 3 6 6
3 3 3 0 0 3 3 6 3 0 0 3 3 0 0 0 0 0 3 6 3 0 0 0 0 0 0 0 3 0 0 0 0 0 0 0 6 0 0 0 0 3 3
0 0 0 0 0 0 0 0 0 0 0 3 3 0 0 0 0 0 3 6 0 0 0 0 0 0 0 0 0 0 3 3 3 0 0 0 0 0 0 0 0 0 3
3 0 0 0 0 0 0 0 0 0 0 0 0 0 0 3 3 3 3 0 0 0 0 0 0 0 3 0 0 0 3 3 0 0 0 0 0 0 0 0 0 3 0
3 3 0 0 0 0 0 0 0 0 0 0 0 0 0 0 0 3 3 0 3 0 0 0 0 0 3 0 0 3 3 0 0 0 0 0 0 0 0 0 3 0 0
3 3 3 0 0 0 0 0 0 0 0 0 0 0 0 0 0 0 0 3 3 0 0 0 0 3 3 0 0 0 0 0 0 0 0 0 0 0 0 0 0 0 0
3 3 3 0 0 0 0 0 0 0 0 0 0 3 3 0 0 0 0 0 0 0 0 0 0 0 3 0 0 0 0 0 0 0 0 0 0 0 0 0 0 0 0
3 3 0 0 0 0 0 0 0 0 0 0 0 3 0 0 0 0 0 0 0 0 0 0 0 0 0 0 0 0 0 0 0 0 0 0 0 0 0 0 0 0 0
3 3 0 0 0 0 0 0 0 3 3 0 0 0 0 0 0 0 0 0 0 0 0 0 0 0 0 0 0 0 0 0 0 0 0 0 0 0 0 0 0 0 0
0 0 0 0 0 0 0 0 0 0 0 0 0 0 3 3 0 0 0 0 0 0 0 0 0 0 0 0 3 0 0 0 0 0 0 0 0 0 0 0 0 0 0

GEFSSE_con_cape1000_234.txt.gz
Probability
13 13 23 19 23 16 16 16 19 26 23 13 23 26 32 32 35 32 35 39 39 45 52 55 65 58 48 48 58 65 71 65 68 65 71 77 65 61 68 65 61 58 65
13 10 29 23 23 19 16 19 16 19 23 16 13 29 26 23 23 23 19 32 35 42 55 65 58 58 45 55 61 61 61 77 71 68 65 74 77 65 58 61 65 61 55
13 10 13 29 23 16 19 16 16 19 16 10 10 10 23 19 19 19 16 23 29 32 32 48 48 48 45 55 52 52 48 48 52 48 55 48 68 68 55 55 61 61 55
6 6 3 23 19 16 16 16 16 19 19 13 10 13 19 23 13 19 23 29 26 19 23 35 39 42 45 39 29 32 32 42 45 29 23 29 23 48 55 48 48 52 48
6 3 10 19 19 19 13 10 13 13 10 13 13 10 13 13 16 16 16 19 26 29 29 35 39 35 39 32 26 26 29 32 32 26 13 10 16 39 42 48 52 48 48
6 6 6 19 19 13 10 6 6 6 10 10 10 16 19 13 16 19 23 19 19 16 16 23 19 19 32 29 26 23 23 29 19 6 6 6 19 45 35 39 39 32 23
6 3 3 19 16 13 10 6 10 3 10 23 19 23 26 19 23 23 19 13 10 6 6 16 19 10 10 16 23 13 13 16 13 3 6 10 23 35 26 32 32 26 16
3 3 3 23 26 19 13 10 6 10 13 23 16 23 26 16 19 13 13 10 3 3 13 13 13 10 3 10 10 6 13 13 0 6 10 10 23 26 29 29 26 23 29
3 3 3 3 6 13 16 10 16 13 13 16 16 23 19 13 16 13 3 3 0 3 6 3 3 6 3 3 3 10 10 13 0 3 10 10 16 23 23 16 19 26 23
3 3 3 6 3 3 3 10 16 10 10 13 6 10 16 13 16 13 10 6 6 6 3 6 3 3 0 0 3 13 16 6 3 10 6 13 23 23 13 16 13 16 23
3 3 3 3 3 3 3 3 3 3 6 10 6 6 16 10 10 10 10 13 13 10 6 6 6 6 3 3 3 10 6 0 0 0 3 16 16 6 6 13 10 10 10
3 3 3 3 3 3 3 3 3 3 3 0 0 3 3 3 6 6 6 16 10 10 6 10 3 3 0 0 0 0 0 0 0 0 3 19 19 10 6 10 3 6 6
3 3 3 3 3 3 3 3 3 3 3 0 0 0 3 3 3 3 3 3 3 3 0 0 0 0 0 0 0 0 0 0 0 0 3 19 3 3 6 10 10 6 10
3 3 3 3 6 3 3 3 3 0 0 0 0 0 0 3 0 3 3 6 3 0 0 0 0 0 0 0 0 0 0 0 0 0 0 10 6 3 6 10 13 13 13
3 3 3 3 3 3 3 3 3 3 3 3 3 0 0 0 3 3 6 6 0 0 0 0 0 0 0 0 0 0 0 0 0 0 0 6 6 6 13 10 13 16 13
0 3 3 3 3 3 3 3 3 3 3 0 3 0 0 0 0 0 3 0 0 0 0 0 0 0 0 0 0 0 0 0 0 0 0 0 10 10 13 6 6 13 10
3 3 3 3 3 3 3 3 3 3 3 3 3 0 0 0 0 0 0 3 0 0 0 0 0 0 0 0 0 0 0 0 0 0 0 0 0 6 3 6 10 10 10
3 3 3 3 3 3 3 3 3 3 3 3 3 3 0 0 0 0 0 0 0 0 0 0 0 0 0 0 0 0 0 0 0 0 0 0 0 0 0 3 10 3 3
3 3 3 3 3 3 3 3 3 3 0 3 3 3 3 0 0 0 3 3 0 0 0 0 0 0 0 0 0 0 0 0 0 0 0 0 0 0 0 0 0 6 3
3 3 3 3 0 0 0 0 0 0 0 0 0 0 3 0 0 0 0 0 3 3 0 0 0 0 0 0 0 0 0 0 0 0 0 0 0 0 0 0 0 0 3
3 3 3 0 0 0 0 0 0 0 0 0 0 0 0 0 0 0 0 0 0 0 3 3 3 0 0 0 0 0 0 0 0 0 0 0 0 0 0 0 0 0 0
6 0 0 0 0 0 3 0 0 0 0 0 0 0 0 0 0 0 0 0 0 0 0 0 0 0 0 0 0 0 0 0 0 0 0 0 0 0 0 0 0 0 0
3 3 0 0 0 0 0 0 0 0 0 0 0 0 0 0 0 0 0 0 0 0 0 0 0 0 0 0 0 0 0 0 0 0 0 0 0 0 0 0 0 0 0
3 3 0 0 0 0 0 0 0 0 0 0 0 0 0 0 0 0 0 0 0 0 0 0 0 0 0 0 0 0 0 0 0 0 0 0 0 0 0 0 0 0 0
3 3 3 0 0 0 0 0 0 0 0 0 0 0 0 0 0 0 0 0 0 0 0 0 0 0 0 0 0 0 0 0 0 0 0 0 0 0 0 0 0 0 0
6 10 3 6 3 3 0 0 0 0 0 0 0 0 0 0 0 0 0 0 0 0 0 0 0 0 0 0 0 0 0 0 0 0 0 0 0 0 0 0 0 0 0

GEFSSE_con_cape1000_240.txt.gz
Probability
0 10 26 26 29 26 32 32 29 23 26 32 39 45 42 45 48 48 45 45 45 52 61 71 68 61 61 61 65 71 74 74 68 71 71 71 65 61 68 68 58 65 68
0 13 32 35 29 29 32 32 29 23 23 26 29 39 42 39 29 32 42 42 42 52 58 65 71 55 68 71 68 65 71 77 65 65 61 65 61 68 58 61 58 55 58
6 13 23 29 32 32 29 29 23 19 19 23 26 35 42 35 35 35 45 39 39 48 45 45 58 48 61 65 55 55 61 61 48 42 39 26 39 65 55 58 55 48 55
6 10 13 23 26 19 26 26 23 16 16 16 23 19 26 26 29 39 35 35 42 45 35 35 42 45 42 45 48 48 48 48 45 35 13 10 19 45 42 45 42 45 52
6 6 16 23 23 23 19 16 19 16 13 13 16 19 29 23 29 29 26 39 39 35 32 29 29 32 32 39 39 32 42 42 39 16 3 6 6 23 29 42 42 39 35
3 3 13 23 19 23 23 19 23 19 13 13 16 19 19 23 26 29 29 23 23 19 26 23 26 19 26 23 29 29 35 35 16 0 0 0 10 19 26 35 29 32 32
3 3 16 23 19 16 16 13 16 19 23 16 19 23 19 26 23 19 19 16 16 16 13 16 19 23 29 23 23 19 26 23 0 0 0 3 6 23 26 29 26 19 19
3 3 10 29 19 13 10 19 19 16 19 19 19 19 19 23 26 23 23 23 16 13 3 13 13 13 23 23 23 16 13 16 0 0 0 0 13 29 16 19 16 19 23
0 3 6 10 13 26 16 13 13 10 19 23 19 19 19 19 19 23 16 16 10 6 3 10 10 10 19 13 6 16 16 6 0 0 0 0 13 23 13 13 13 19 13
0 3 3 3 6 6 6 19 16 13 16 16 13 16 23 23 23 19 16 13 10 6 3 6 6 3 10 6 3 10 6 3 0 0 0 0 16 29 19 16 16 13 10
0 0 3 3 3 3 3 3 10 6 10 6 10 10 6 0 0 6 10 16 13 6 3 3 3 3 3 0 0 3 0 0 0 0 0 3 13 19 16 10 10 10 10
0 0 0 0 3 3 3 3 3 3 3 0 0 3 0 0 0 6 10 13 13 10 3 3 6 0 0 0 0 0 0 0 0 0 0 6 10 3 13 3 6 3 3
0 0 0 0 0 0 0 3 0 0 0 0 0 0 0 0 0 3 3 3 3 0 0 0 0 0 0 0 0 0 0 0 0 0 3 6 6 3 6 10 3 3 13
3 0 0 0 3 0 0 0 0 0 0 0 0 0 0 0 0 0 0 0 0 0 0 0 0 0 0 0 0 0 0 0 0 0 0 6 3 3 6 10 16 13 10
3 3 3 3 3 3 0 0 0 0 0 0 0 0 0 0 0 0 0 0 0 0 0 0 0 0 0 0 0 0 0 0 0 0 0 6 6 6 6 6 13 13 16
3 3 3 3 3 3 0 0 0 0 0 0 0 0 0 0 0 0 0 0 0 0 0 0 0 0 0 0 0 0 0 0 0 0 0 0 3 3 3 3 6 6 10
3 3 3 3 3 3 0 0 0 0 0 0 0 0 0 0 0 0 0 0 0 0 0 0 0 0 0 0 0 0 0 0 0 0 0 0 0 0 3 3 10 6 6
3 3 3 3 3 3 3 3 3 0 0 0 0 0 0 0 0 0 0 0 0 0 0 0 0 0 0 0 0 0 0 0 0 0 0 0 0 0 0 0 3 3 6
3 3 3 3 3 3 0 0 0 0 0 0 0 0 0 0 0 0 0 0 0 0 0 0 0 0 0 0 0 0 0 0 0 0 0 0 0 0 0 0 3 6 6
3 3 3 0 0 0 0 0 0 0 0 0 0 0 0 0 0 0 0 0 0 0 0 0 0 0 0 0 0 0 0 0 0 0 0 0 0 0 0 0 0 0 3
3 3 3 0 0 0 0 0 0 0 0 0 0 0 0 0 0 0 0 0 0 0 0 0 0 0 0 0 0 0 0 0 0 0 0 0 0 0 0 0 0 0 0
3 3 3 0 0 0 0 0 0 0 0 0 0 0 0 0 0 0 0 0 0 0 0 0 0 0 0 0 0 0 0 0 0 0 0 0 0 0 0 0 0 0 0
3 3 3 0 0 0 0 0 0 0 0 0 0 0 0 0 0 0 0 0 0 0 0 0 0 0 0 0 0 0 0 0 0 0 0 0 0 0 0 0 0 0 0
0 0 0 0 0 0 0 0 0 0 0 0 0 0 0 0 0 0 0 0 0 0 0 0 0 0 0 0 0 0 0 0 0 0 0 0 0 0 0 0 0 0 0
0 0 0 0 0 0 0 0 0 0 0 0 0 0 0 0 0 0 0 0 0 0 0 0 0 0 0 0 0 0 0 0 0 0 0 0 0 0 0 0 0 0 0
0 0 0 0 0 0 0 0 0 0 0 0 0 0 0 0 0 0 0 0 0 0 0 0 0 0 0 0 0 0 0 0 0 0 0 0 0 0 0 0 0 0 0

GEFSSE_con_cape1000_246.txt.gz
Probability
0 0 23 23 23 26 35 32 26 26 32 35 39 45 48 45 45 48 45 52 55 58 61 61 58 61 55 58 65 61 58 65 65 58 71 61 65 65 68 71 65 61 71
0 0 19 23 32 39 35 32 19 23 29 35 42 35 42 35 35 32 42 45 45 45 48 52 52 52 52 55 52 61 58 55 58 61 61 58 65 61 61 61 61 48 52
0 10 16 13 23 32 29 23 19 26 19 23 29 29 29 29 32 29 35 35 35 39 42 48 58 55 52 55 52 55 52 52 52 48 39 19 35 58 52 55 52 58 55
3 13 10 13 19 23 26 23 16 19 13 16 23 19 23 23 23 29 35 39 35 39 42 45 42 55 58 61 55 48 45 39 32 29 10 6 13 39 35 45 42 48 45
6 10 16 23 19 16 23 23 19 16 10 10 16 13 16 19 26 35 35 29 29 35 35 35 39 42 45 45 39 35 39 35 29 10 0 0 6 35 39 32 39 35 32
3 6 13 19 23 19 19 19 19 16 13 10 10 10 16 26 29 23 19 19 16 16 29 32 42 42 32 32 26 29 26 32 10 0 0 0 6 26 35 35 32 32 32
3 3 6 19 19 23 13 16 16 13 16 10 10 6 16 26 23 19 10 19 23 29 32 35 29 23 26 29 23 23 23 16 0 0 0 0 3 29 39 32 35 32 32
3 3 10 13 13 19 10 6 13 13 16 19 16 16 23 16 16 13 6 10 13 19 16 16 16 16 29 23 19 19 13 10 0 0 0 0 13 19 29 32 23 26 16
3 3 3 6 6 13 13 6 10 16 10 10 13 19 19 23 13 10 13 10 6 13 13 13 10 3 10 13 16 16 10 3 0 0 0 0 10 19 23 19 26 13 19
3 3 3 3 3 3 3 3 19 10 16 16 19 19 16 10 6 10 6 10 10 13 10 16 16 3 10 10 16 6 6 3 0 0 0 0 0 16 19 26 16 16 10
0 3 3 3 3 3 3 3 3 3 3 3 3 10 6 0 0 0 10 13 10 10 10 10 10 6 10 13 3 6 0 0 0 0 0 0 6 13 19 16 13 13 13
0 0 3 3 3 3 3 3 3 3 3 3 0 0 0 0 0 0 6 19 13 13 10 3 6 0 0 0 0 0 0 0 0 0 0 3 10 3 10 13 6 19 13
0 0 3 3 0 3 3 3 3 3 0 0 0 0 0 0 0 0 0 0 0 0 0 0 0 0 0 0 0 0 0 0 0 0 0 6 3 6 6 13 16 16 13
0 0 3 3 3 3 0 0 3 0 0 0 0 0 0 0 0 0 0 0 0 0 0 0 0 0 0 0 0 0 0 0 0 0 0 10 6 6 6 10 3 10 6
0 0 0 0 0 3 0 0 3 0 0 0 0 0 0 0 0 0 0 0 0 0 0 0 0 0 0 0 0 0 0 0 0 0 0 3 3 3 3 10 6 10 6
3 0 0 0 0 3 3 0 0 3 0 0 0 0 0 0 0 0 0 0 0 0 0 0 0 0 0 0 0 0 0 0 0 0 0 0 0 0 0 3 0 6 10
3 3 0 0 0 0 0 0 0 0 0 0 0 0 0 0 0 0 0 0 0 0 0 0 0 0 0 0 0 0 0 0 0 0 0 0 0 0 0 0 3 0 6
3 3 3 0 0 3 3 3 0 0 0 0 0 0 0 0 0 0 0 0 0 0 0 0 0 0 0 0 0 0 0 0 0 0 0 0 0 0 0 0 0 3 3
3 3 3 3 3 3 3 3 0 0 0 0 0 0 0 0 0 0 0 0 0 0 0 0 0 0 0 0 0 0 0 0 0 0 0 0 0 0 0 0 0 0 0
3 3 3 3 3 3 3 0 0 0 0 0 0 0 0 0 0 0 0 0 0 0 0 0 0 0 0 0 0 0 0 0 0 0 0 0 0 0 0 0 0 0 0
3 3 3 3 3 0 0 0 0 0 0 0 0 0 0 0 0 0 0 0 0 0 0 0 0 0 0 0 0 0 0 0 0 0 0 0 0 0 0 0 0 0 0
3 3 3 3 0 0 0 0 0 0 0 0 0 0 0 0 0 0 0 0 0 0 0 0 0 0 0 0 0 0 0 0 0 0 0 0 0 0 0 0 0 0 0
3 3 3 0 0 0 0 0 0 0 0 0 0 0 0 0 0 0 0 0 0 0 0 0 0 0 0 0 0 0 0 0 0 0 0 0 0 0 0 0 0 0 0
3 3 0 0 0 0 0 0 0 0 0 0 0 0 0 0 0 0 0 0 0 0 0 0 0 0 0 0 0 0 0 0 0 0 0 0 0 0 0 0 0 0 0
0 0 0 0 0 0 0 0 0 0 0 0 0 0 0 0 0 0 0 0 0 0 0 0 0 0 0 0 0 0 0 0 0 0 0 0 0 0 0 0 0 0 0
0 0 0 0 0 0 0 0 0 0 0 0 0 0 0 0 0 0 0 0 0 0 0 0 0 0 0 0 0 0 0 0 0 0 0 0 0 0 0 0 0 0 0

GEFSSE_con_cape1000_252.txt.gz
Probability
3 6 23 19 29 35 35 32 32 29 32 23 32 29 35 39 29 42 35 35 35 42 48 48 55 55 55 55 52 58 68 65 61 65 65 65 65 65 68 65 55 55 55
0 3 13 23 23 19 32 32 26 26 19 19 19 23 29 32 26 32 35 35 32 35 45 39 48 52 52 55 58 58 55 55 61 58 58 55 65 65 68 55 55 61 61
0 6 13 13 26 29 26 26 26 19 19 19 16 16 16 23 19 23 23 23 32 29 23 32 42 55 61 55 48 52 55 58 48 52 52 45 48 58 48 45 52 52 52
3 6 6 10 13 19 29 26 19 16 13 13 13 13 13 16 19 23 26 23 23 19 19 23 32 45 42 48 52 42 39 35 35 35 26 32 32 45 42 42 39 32 42
3 3 10 16 16 16 19 16 16 13 10 13 13 13 13 13 13 13 23 23 23 23 29 29 29 32 39 35 39 45 39 29 23 19 26 32 45 35 29 39 39 39 35
6 3 6 13 13 16 13 19 16 16 13 13 10 13 13 16 16 16 16 16 19 19 19 26 23 29 26 26 26 29 23 13 13 23 26 26 42 48 42 32 29 29 32
3 3 3 13 16 13 13 13 16 19 19 10 10 13 13 16 19 19 16 19 29 23 16 16 19 16 16 16 23 16 10 16 10 16 26 26 39 29 35 26 29 32 35
3 3 3 10 13 10 13 10 10 13 13 13 13 13 13 10 6 10 19 13 16 13 13 16 13 13 10 10 13 6 3 6 0 0 6 16 19 32 32 26 29 23 26
3 3 3 3 3 6 6 13 13 16 16 16 16 16 13 13 13 10 6 10 13 16 16 10 6 10 3 6 6 6 3 6 0 3 3 6 13 26 23 23 19 19 23
3 3 3 3 3 3 6 3 10 13 16 16 16 13 16 13 10 6 10 16 13 16 16 10 3 6 0 0 3 3 3 0 0 3 6 6 13 23 19 23 19 13 19
3 3 3 3 3 3 3 3 3 6 3 3 13 10 6 0 0 3 13 13 16 16 10 6 3 3 3 3 3 6 3 0 0 0 10 13 13 16 16 19 16 19 13
3 3 3 3 3 3 3 3 3 3 3 6 3 3 0 0 3 6 6 13 13 10 6 3 3 3 6 3 0 0 3 0 0 0 10 6 3 16 13 10 6 3 6
3 6 3 6 6 6 6 6 6 6 10 6 0 0 10 3 3 6 6 13 13 10 3 0 0 3 3 3 3 0 0 3 3 6 0 3 3 3 6 6 6 3 10
6 6 6 6 6 6 6 3 3 6 10 10 6 3 6 13 10 10 13 10 10 10 0 0 0 0 0 0 0 0 0 0 3 6 3 6 10 10 6 6 0 3 6
6 6 6 6 6 6 6 3 3 3 10 6 6 6 3 3 13 6 10 10 3 3 3 3 0 0 0 0 0 0 0 0 0 0 3 0 6 3 3 3 0 3 3
10 3 3 3 6 3 3 3 3 3 10 6 6 3 0 0 0 3 0 3 0 3 3 3 3 6 10 3 3 0 0 0 0 0 3 3 0 0 3 3 3 0 6
6 3 3 3 3 3 3 3 3 6 10 10 6 3 0 0 0 3 0 0 0 0 0 0 3 6 6 6 3 0 0 0 0 0 0 0 0 0 0 0 3 0 3
10 10 6 3 3 3 3 3 3 3 6 10 6 3 3 0 0 0 0 0 0 0 3 3 3 6 3 3 3 3 0 0 0 0 0 0 0 0 0 0 0 0 0
10 10 6 3 3 6 3 3 3 3 10 6 3 3 3 3 3 0 0 0 0 3 3 3 3 0 3 3 3 3 3 0 0 0 0 0 0 0 0 0 0 0 0
10 10 6 6 3 6 6 3 6 6 6 6 3 3 3 3 3 3 0 0 0 3 0 0 0 0 0 3 3 3 3 0 0 0 0 0 0 0 0 0 3 0 0
6 6 6 6 6 6 10 6 6 6 10 10 3 3 3 3 3 6 0 0 0 0 0 0 0 0 0 0 3 3 3 0 0 0 0 0 0 0 0 0 3 0 0
6 6 6 6 6 6 10 6 6 6 10 10 10 3 3 3 3 3 3 0 3 0 0 3 3 0 0 0 0 3 3 3 3 0 0 0 0 0 0 0 0 0 0
10 6 6 6 10 10 10 3 3 6 6 6 6 6 3 3 3 3 3 0 0 0 0 0 0 0 3 3 0 0 3 3 3 3 0 0 0 0 0 0 0 0 0
10 6 6 6 10 10 10 10 10 6 6 6 6 6 3 3 3 3 0 0 0 0 0 0 0 0 0 0 0 0 0 0 3 3 0 0 0 0 0 0 0 0 0
3 6 6 6 10 10 10 10 10 10 10 3 6 3 3 0 0 0 0 0 0 0 0 0 0 0 0 0 0 0 0 0 0 0 0 0 0 0 0 0 0 0 0
6 6 10 10 10 10 10 10 6 6 6 6 6 6 6 0 0 0 0 3 0 0 0 0 0 0 0 0 0 0 0 3 3 0 0 3 0 0 0 0 0 0 0

GEFSSE_con_cape1000_258.txt.gz
Probability
19 19 39 45 35 23 23 26 19 19 23 26 23 23 29 26 29 35 35 35 32 35 45 42 39 35 32 35 39 55 55 55 55 52 65 61 58 52 52 58 58 58 71
10 16 32 39 29 26 19 26 26 19 23 19 19 19 19 23 26 26 29 35 29 29 32 29 26 32 35 39 55 58 52 55 45 52 61 65 61 55 58 58 55 45 61
10 13 19 26 29 26 23 23 19 23 19 13 13 13 13 19 19 26 23 26 26 19 23 29 32 32 32 45 42 45 48 45 39 48 48 45 55 65 52 52 52 52 48
10 13 16 26 26 29 23 19 23 19 10 10 10 10 13 13 13 19 23 29 26 26 23 26 26 32 32 35 39 35 29 32 32 39 23 19 26 55 58 55 55 42 42
10 13 13 19 23 23 23 19 16 16 13 10 10 10 10 10 16 19 23 26 26 23 19 16 29 29 26 29 26 23 19 26 35 19 13 6 16 45 52 48 42 39 42
6 10 16 23 23 13 13 16 13 13 10 6 6 6 10 10 16 16 19 23 26 26 23 13 19 19 26 16 19 23 19 16 23 6 10 10 13 45 42 45 35 39 39
6 10 10 19 23 19 16 13 13 13 13 10 10 13 10 13 19 16 26 23 19 19 19 19 23 23 16 10 10 13 13 19 10 3 6 3 13 39 48 39 32 35 35
6 10 10 19 23 23 13 13 16 23 23 19 19 19 13 16 16 13 10 16 19 16 13 16 16 13 16 6 6 6 6 13 0 0 3 0 26 35 29 26 26 29 19
3 10 6 10 10 19 23 23 19 13 19 16 16 16 19 16 10 10 10 13 16 16 13 13 10 13 10 6 3 6 10 10 0 0 0 0 23 23 23 29 26 19 19
3 3 6 6 10 10 13 16 16 13 19 19 13 19 19 23 16 6 6 16 6 3 10 6 13 3 3 0 3 6 16 10 0 0 0 0 16 13 16 16 19 29 23
3 6 6 6 6 10 6 3 13 13 13 10 6 16 19 0 3 3 6 13 6 10 10 10 6 6 3 3 3 13 10 0 0 0 0 0 10 10 16 13 6 10 16
3 6 6 6 6 6 3 6 3 3 3 3 6 6 3 3 0 0 10 16 10 13 13 6 13 3 3 0 0 6 0 0 0 0 0 6 10 10 16 13 6 10 16
6 6 6 10 6 6 6 6 6 3 3 3 6 3 3 6 3 3 3 6 3 6 0 3 6 0 0 0 0 0 0 0 0 0 0 10 10 10 10 16 10 6 6
6 6 6 6 6 6 6 6 6 6 3 3 3 3 3 6 6 6 6 6 3 0 0 6 3 0 0 0 0 0 0 0 0 0 0 6 16 10 6 6 6 3 6
6 6 6 6 6 6 3 6 6 6 3 6 6 6 3 3 0 0 6 0 3 3 0 0 0 0 0 0 0 0 0 0 0 0 0 3 3 6 3 3 6 3 6
6 6 6 6 6 6 3 3 3 6 6 6 6 3 3 3 3 3 3 3 0 0 0 0 0 0 3 3 3 0 0 0 0 0 0 0 0 6 10 6 6 6 3
6 6 6 6 6 6 3 3 3 6 6 6 3 0 0 0 3 3 3 0 0 0 0 0 3 0 0 0 3 3 0 0 0 0 0 0 0 0 6 6 6 6 10
6 3 3 3 3 3 3 3 3 3 6 10 6 0 0 0 0 3 0 0 0 3 3 3 3 0 0 0 0 0 3 3 0 0 0 0 0 0 0 6 3 6 6
6 3 3 3 3 3 3 3 3 3 6 6 6 3 0 0 0 0 0 0 0 3 3 3 0 0 0 0 0 0 0 3 3 0 0 0 0 0 0 0 3 3 0
6 6 3 3 3 3 3 3 10 10 6 6 10 3 3 0 0 0 0 0 3 3 3 0 0 0 0 0 0 0 0 0 3 0 0 0 0 0 0 0 0 0 0
10 3 3 3 3 3 3 3 6 6 6 6 10 3 3 3 0 6 0 0 3 3 3 0 0 0 0 0 0 0 0 0 0 0 0 0 0 0 0 0 0 0 0
6 6 3 3 3 3 6 6 6 10 10 6 6 6 3 3 3 3 0 0 0 3 0 0 0 0 0 0 0 0 0 0 0 3 0 0 0 0 0 0 0 0 0
6 6 3 6 6 6 6 6 6 10 10 10 6 6 3 3 3 3 0 3 0 0 0 0 3 0 0 0 0 0 0 0 0 3 0 0 0 0 0 0 0 0 0
13 13 10 6 6 6 10 10 6 6 6 6 6 6 6 3 3 3 0 3 0 0 0 0 0 0 0 0 0 0 0 0 0 0 0 0 0 0 0 0 0 0 0
16 16 16 16 10 13 10 13 10 6 6 6 10 10 10 10 3 3 3 3 3 0 0 0 0 0 0 0 0 0 0 0 0 0 0 0 0 0 0 0 0 0 0
6 6 6 6 6 13 13 10 10 10 10 6 10 10 10 10 10 3 3 6 3 3 0 0 0 0 0 0 0 0 0 0 0 0 0 0 0 0 0 0 0 0 0

GEFSSE_con_cape1000_264.txt.gz
Probability
0 23 42 45 48 35 35 29 26 26 32 29 35 39 42 42 45 52 52 45 42 42 42 42 52 48 52 48 58 65 68 61 61 52 61 52 52 45 45 55 55 55 71
6 26 42 48 42 35 35 29 29 29 26 26 35 35 39 42 32 29 39 39 42 39 32 39 45 45 42 48 58 65 65 65 48 48 58 45 42 45 48 55 52 48 55
16 23 35 48 45 39 29 26 23 23 23 19 16 29 35 39 29 29 39 39 35 35 39 42 45 35 39 52 58 55 52 42 39 42 35 23 32 39 61 65 58 58 45
16 19 23 39 32 32 35 29 19 16 16 16 19 19 23 29 29 26 39 45 39 32 32 45 42 39 39 39 39 48 42 35 32 35 10 13 26 42 48 52 52 48 48
13 19 26 35 29 32 29 29 16 19 19 19 16 19 23 23 16 26 29 39 35 35 29 32 39 35 32 26 29 35 32 29 23 10 0 0 19 35 45 45 35 48 42
13 16 23 32 29 29 29 23 23 19 26 19 19 16 19 19 19 23 29 29 29 32 29 32 35 32 26 23 19 19 23 23 6 0 0 0 13 29 45 48 48 45 42
10 16 16 29 35 29 23 23 23 23 26 26 19 26 26 23 26 26 29 26 29 35 26 16 26 19 13 13 13 10 13 13 3 0 0 0 10 29 32 35 45 42 35
10 6 16 35 29 32 23 19 23 26 26 23 19 23 16 16 16 19 23 23 23 29 16 19 16 16 6 6 3 6 13 13 0 0 0 0 10 29 29 29 32 32 29
6 10 13 16 23 39 35 29 26 29 23 19 16 16 19 19 19 13 13 10 13 19 10 10 10 6 6 10 13 13 16 13 0 0 0 0 16 16 16 26 29 29 26
6 10 10 10 10 6 13 32 29 29 23 19 19 16 13 16 13 13 10 6 3 6 0 6 6 10 6 3 10 10 10 6 0 0 0 3 16 16 16 19 19 26 19
3 10 10 6 3 3 3 13 19 19 16 16 19 19 13 3 3 3 6 6 10 10 6 10 13 13 6 3 3 13 6 0 0 0 0 6 10 6 10 13 10 16 16
3 3 3 3 3 3 3 3 3 3 3 3 3 0 0 0 0 3 10 23 19 16 16 10 6 6 0 0 0 0 0 0 0 0 0 10 6 13 10 13 10 16 16
3 3 3 3 3 3 3 3 0 3 3 3 0 0 0 0 0 3 3 3 0 3 0 0 0 0 0 0 0 0 0 0 0 0 0 6 6 10 6 6 6 10 6
3 3 6 6 3 3 3 3 0 0 0 0 0 0 0 0 0 0 0 0 0 0 0 0 0 0 0 0 0 0 0 0 0 0 0 10 6 6 6 6 10 13 6
3 6 6 3 3 3 3 3 0 0 0 0 0 0 0 0 0 0 0 0 0 0 0 0 0 0 0 0 3 0 0 0 0 0 0 3 3 10 6 3 13 10 10
3 6 6 3 3 3 3 0 0 0 0 0 0 0 0 0 0 0 0 0 0 0 0 0 0 0 0 0 0 0 0 0 0 0 0 0 10 10 6 10 13 6 6
0 6 6 3 3 3 3 0 0 0 0 0 0 0 0 0 0 0 0 0 0 0 0 0 0 0 0 0 0 0 0 0 0 0 0 0 0 6 6 10 10 10 6
3 6 6 6 3 3 3 3 3 0 0 0 0 0 0 0 0 0 0 0 0 0 0 0 0 0 0 0 0 0 0 0 0 0 0 0 0 0 0 6 10 6 6
6 6 6 6 3 3 3 3 3 0 0 0 0 0 0 0 0 0 0 0 0 0 0 0 0 0 0 0 0 0 0 0 0 0 0 0 0 0 0 0 0 3 6
6 3 3 3 3 3 3 3 3 0 0 0 0 0 0 0 0 0 0 0 0 0 0 0 0 0 0 0 0 0 0 0 0 0 0 0 0 0 0 0 0 0 0
3 3 3 3 3 3 3 3 3 3 0 0 0 0 0 0 0 0 0 0 0 0 0 0 0 0 0 0 0 0 0 0 0 0 0 0 0 0 0 0 0 0 0
3 3 3 3 3 3 3 3 3 3 0 0 0 0 0 0 0 0 0 0 0 0 0 0 0 0 0 0 0 0 0 0 0 0 0 0 0 0 0 0 0 0 0
3 3 3 3 3 3 3 3 3 0 0 0 0 0 0 0 0 0 0 0 0 0 0 0 0 0 0 0 0 0 0 0 0 0 0 0 0 0 0 0 0 0 0
3 3 3 3 3 3 3 3 3 3 3 0 0 0 0 0 0 0 0 0 0 0 0 0 0 0 0 0 0 0 0 0 0 0 0 0 0 0 0 0 0 0 0
3 3 3 3 3 3 3 3 3 3 0 0 0 0 0 0 0 0 0 0 0 0 0 0 0 0 0 0 0 0 0 0 0 0 0 0 0 0 0 0 0 0 0
3 3 3 3 3 3 3 3 3 3 0 0 0 0 0 0 0 0 0 0 0 0 0 0 0 0 0 0 0 0 0 0 0 0 0 0 0 0 0 0 0 0 0

GEFSSE_con_cape1000_270.txt.gz
Probability
0 0 29 42 32 29 29 26 23 26 29 39 39 32 35 35 42 48 45 42 45 45 48 55 58 52 48 52 48 55 48 58 68 61 61 61 61 68 52 65 68 65 68
0 6 26 48 42 32 26 26 32 23 26 32 42 32 29 29 35 35 39 42 39 42 42 45 48 52 52 48 48 58 55 52 55 58 52 52 55 52 55 55 55 45 52
0 13 23 39 35 29 23 26 19 19 26 26 32 29 32 32 29 32 32 32 35 35 39 42 35 45 48 48 52 58 52 58 48 55 35 23 32 45 55 58 61 58 55
6 13 19 35 39 32 26 26 23 13 23 19 19 29 19 26 29 29 32 35 39 39 32 35 35 39 42 45 45 48 52 52 42 35 10 10 13 32 52 61 61 52 52
13 13 23 29 29 29 29 26 23 23 19 26 16 19 26 23 19 26 32 29 26 35 23 23 29 32 29 32 35 35 32 35 32 6 0 3 13 26 45 42 48 45 48
13 13 16 26 19 26 26 26 23 19 16 16 16 16 19 19 23 19 23 23 19 26 32 32 29 35 35 23 26 23 23 26 6 3 0 3 10 26 29 39 39 35 35
10 13 16 23 23 26 19 29 23 26 26 26 19 19 19 23 19 19 13 16 19 19 19 26 29 29 32 26 26 26 23 13 0 0 0 0 13 23 32 29 39 35 39
10 13 16 23 23 29 23 23 19 23 26 32 26 26 19 16 16 13 19 19 19 23 16 10 10 13 6 16 16 19 16 6 3 0 0 0 16 16 26 32 29 29 26
3 10 10 13 16 26 26 29 26 23 23 23 23 26 13 10 10 16 10 13 19 16 16 13 13 19 13 13 16 16 13 10 0 0 0 0 13 19 26 23 16 16 23
3 10 6 6 10 6 6 23 26 26 26 19 23 16 16 10 10 19 10 13 16 16 16 26 16 23 19 13 19 16 6 0 0 0 0 3 16 26 16 10 23 26 23
0 3 6 3 3 0 3 10 10 16 13 10 10 13 3 3 3 3 13 10 6 19 19 16 16 16 19 6 16 6 0 0 0 0 0 13 23 19 13 13 13 13 19
0 3 3 3 3 3 3 3 3 3 3 3 3 3 0 0 0 0 3 16 10 10 13 13 6 3 0 0 3 0 0 0 0 0 0 10 19 23 19 16 16 23 16
0 0 3 3 3 3 0 0 0 3 0 0 0 0 0 0 0 0 0 0 0 0 0 0 0 0 0 0 0 0 0 0 0 0 0 6 10 13 13 10 19 16 13
0 0 3 3 3 3 3 0 0 3 0 0 0 0 0 0 0 0 0 0 0 0 0 0 0 0 0 0 0 0 0 0 0 0 0 3 0 3 6 13 16 19 19
3 0 3 3 3 3 3 0 0 3 0 0 0 0 0 0 0 0 0 0 0 0 0 0 0 0 0 0 0 0 0 0 0 0 0 0 3 0 0 6 19 13 13
3 3 3 6 3 3 3 0 0 3 0 0 0 0 0 0 0 0 0 0 0 0 0 0 0 0 0 0 0 0 0 0 0 0 0 0 0 0 0 3 13 13 16
3 3 3 6 3 3 3 0 0 0 0 0 0 0 0 0 0 0 0 0 0 0 0 0 0 0 0 0 0 0 0 0 0 0 0 0 0 0 0 0 6 6 6
3 3 6 6 3 3 3 0 0 0 0 0 0 0 0 0 0 0 0 0 0 0 0 0 0 0 0 0 0 0 0 0 0 0 0 0 0 0 0 0 0 0 0
3 6 6 3 3 3 3 0 0 0 0 0 0 0 0 0 0 0 0 0 0 0 0 0 0 0 0 0 0 0 0 0 0 0 0 0 0 0 0 0 0 0 0
0 3 6 3 3 3 3 3 0 0 0 0 0 0 0 0 0 0 0 0 0 0 0 0 0 0 0 0 0 0 0 0 0 0 0 0 0 0 0 0 0 0 0
0 0 0 3 3 3 3 3 3 0 0 0 0 0 0 0 0 0 0 0 0 0 0 0 0 0 0 0 0 0 0 0 0 0 0 0 0 0 0 0 0 0 0
0 0 0 3 3 3 3 3 3 3 0 0 0 0 0 0 0 0 0 0 0 0 0 0 0 0 0 0 0 0 0 0 0 0 0 0 0 0 0 0 0 0 0
0 0 0 3 3 3 3 3 0 0 0 0 0 0 0 0 0 0 0 0 0 0 0 0 0 0 0 0 0 0 0 0 0 0 0 0 0 0 0 0 0 0 0
0 0 0 0 3 3 3 3 3 3 3 0 0 0 0 0 0 0 0 0 0 0 0 0 0 0 0 0 0 0 0 0 0 0 0 0 0 0 0 0 0 0 0
0 0 0 0 3 3 3 3 3 3 3 0 0 0 0 0 0 0 0 0 0 0 0 0 0 0 0 0 0 0 0 0 0 0 0 0 0 0 0 0 0 0 0
0 0 0 3 3 3 3 3 3 3 3 0 0 0 0 0 0 0 0 0 0 0 0 0 0 0 0 0 0 0 0 0 0 0 0 0 0 0 0 0 0 0 0

GEFSSE_con_cape1000_276.txt.gz
Probability
0 10 19 26 26 29 26 26 26 39 35 42 39 35 32 29 39 39 35 39 48 48 45 52 48 35 52 45 48 45 42 48 55 48 52 52 55 58 58 65 58 55 61
0 10 19 19 23 26 29 26 35 39 42 39 29 26 26 26 26 26 23 29 35 48 42 45 48 45 45 45 45 45 45 35 45 39 42 55 55 55 48 42 48 58 45
3 10 13 23 26 26 26 23 23 23 23 23 32 32 29 26 26 23 19 23 26 35 35 48 42 42 42 45 52 42 45 39 39 39 35 42 42 39 39 55 55 48 45
3 10 10 26 29 29 29 32 23 16 19 23 23 23 19 26 29 26 19 23 19 26 29 39 35 42 32 32 39 35 35 39 35 23 26 19 23 29 29 48 52 48 52
6 10 3 23 29 26 29 29 29 23 23 23 19 13 16 19 19 26 23 16 19 26 16 29 32 32 26 29 26 29 32 42 39 13 16 29 35 26 19 32 45 52 45
6 10 6 29 29 29 29 32 35 23 19 19 23 16 19 16 19 13 16 16 16 16 19 23 29 26 16 16 19 16 19 16 6 3 16 16 23 26 23 32 35 45 45
6 6 3 23 23 19 26 23 26 23 23 29 26 23 19 16 16 16 19 13 13 13 13 16 23 23 19 26 26 19 19 10 10 16 13 23 23 26 26 23 29 32 39
0 3 6 16 19 23 19 23 29 23 29 35 19 23 26 23 19 19 19 13 10 10 19 16 13 16 10 13 13 10 13 0 6 3 16 19 23 23 26 23 19 26 26
0 0 3 10 6 13 19 35 32 39 35 29 23 26 26 23 19 13 13 16 13 10 16 19 10 6 6 10 6 6 3 6 6 16 3 10 16 23 23 23 19 29 26
3 3 3 10 6 6 13 23 29 19 19 16 13 6 13 13 13 10 10 10 10 10 13 6 6 13 19 16 10 6 0 0 3 6 6 6 16 23 29 23 16 10 16
6 3 6 10 6 3 3 10 13 16 13 10 10 10 6 10 3 3 6 6 10 10 13 13 16 13 10 3 3 0 0 0 0 3 10 3 10 16 16 16 13 16 10
3 3 3 6 6 3 0 6 6 3 3 3 3 0 6 6 3 3 3 13 10 13 10 6 6 6 6 6 3 0 0 0 0 0 3 0 6 13 16 19 16 10 6
6 6 10 10 10 6 10 6 6 3 3 3 3 0 3 6 6 6 10 16 16 6 6 6 6 6 6 6 6 0 0 0 0 3 3 0 0 3 6 13 10 10 6
6 6 6 10 10 10 10 10 3 6 3 3 3 3 6 6 10 10 13 13 16 13 6 6 6 6 6 3 0 0 0 0 0 3 3 0 0 3 6 10 10 6 6
3 10 6 6 10 6 10 10 3 6 3 6 6 6 3 10 10 6 10 10 3 3 6 6 6 3 0 0 0 0 0 0 0 3 3 0 0 0 0 0 6 10 6
3 3 10 6 6 6 6 3 3 6 3 3 3 3 3 3 3 6 3 3 3 3 3 3 3 3 0 0 0 0 0 0 0 0 0 3 0 0 0 0 0 6 10
6 6 6 6 6 10 3 3 3 3 3 3 3 3 3 3 6 6 3 3 3 3 0 3 3 3 0 0 0 0 0 0 0 0 0 3 0 0 0 0 0 0 6
10 10 6 6 6 6 3 3 3 3 6 6 6 6 6 3 6 6 0 3 0 0 6 3 3 0 0 0 0 0 0 0 0 0 0 0 0 0 0 0 0 0 0
10 10 6 6 6 6 3 3 10 6 6 6 6 6 6 6 3 6 3 6 0 0 6 3 6 6 6 6 0 0 0 0 0 0 0 0 0 0 0 0 0 0 0
6 6 6 6 6 6 10 6 13 6 6 10 10 6 6 6 3 3 3 3 0 6 6 6 6 6 6 3 0 0 0 0 0 0 0 0 0 0 0 0 0 0 0
6 6 6 6 10 10 6 6 10 13 13 10 6 6 6 6 3 3 6 6 10 6 6 3 6 6 6 3 3 3 3 0 0 0 0 0 0 0 0 0 0 0 0
6 3 3 6 10 6 10 6 6 10 6 3 3 6 6 6 6 6 6 6 10 10 3 3 6 6 6 3 6 3 0 0 0 0 0 0 0 0 0 0 0 0 0
10 6 3 6 10 6 6 6 6 6 6 6 3 3 3 3 3 6 6 10 6 3 3 3 3 6 6 6 6 3 3 0 0 0 0 0 0 0 3 0 0 0 0
10 10 10 10 3 6 6 6 6 6 6 3 3 3 3 3 3 3 6 10 10 3 0 0 0 6 10 6 3 3 3 3 0 0 0 0 0 0 0 0 0 0 0
10 10 10 6 6 10 13 13 16 10 10 6 3 3 3 3 3 3 3 6 6 6 3 0 0 3 10 10 6 6 3 3 0 3 0 0 0 0 0 0 0 0 0
6 6 10 10 10 16 16 10 10 10 10 10 3 3 3 3 3 3 3 3 0 3 6 0 0 3 3 6 6 6 3 3 3 3 0 3 3 0 0 0 0 0 0

GEFSSE_con_cape1000_282.txt.gz
Probability
19 13 32 26 32 32 19 23 32 32 39 35 39 42 39 32 32 26 35 32 39 45 45 48 48 52 35 42 42 42 42 52 61 55 58 58 55 65 61 52 55 61 68
13 16 32 35 29 29 26 16 26 26 29 29 26 29 29 26 23 29 23 19 32 39 39 39 45 52 42 39 35 29 26 35 35 42 52 45 52 68 52 55 52 45 48
13 13 19 39 32 29 32 32 26 23 26 32 29 23 26 26 26 26 23 19 19 16 29 32 35 35 35 29 29 26 26 23 35 45 45 35 42 55 55 52 55 48 48
10 10 13 29 26 29 26 32 32 26 23 19 19 23 19 26 16 23 23 23 13 23 23 26 29 29 29 23 29 26 26 26 26 39 23 26 23 39 45 42 42 42 45
10 6 16 23 16 26 26 29 32 35 29 23 23 23 29 16 13 16 19 23 23 26 26 26 32 26 26 26 26 19 19 13 23 19 10 19 16 39 39 32 23 45 42
10 6 13 26 23 26 29 39 35 32 32 29 26 23 23 19 16 16 19 19 19 23 26 26 26 26 16 23 16 13 13 16 19 6 10 13 16 32 32 39 35 35 39
6 6 10 23 29 29 26 32 35 35 29 23 26 26 23 19 23 16 23 19 13 16 13 16 16 16 13 10 6 10 13 29 10 3 6 10 13 23 26 23 29 29 39
6 6 3 29 29 29 29 32 26 19 19 16 23 26 29 26 26 16 16 13 16 16 13 10 16 16 10 13 13 10 13 6 0 0 3 6 16 19 35 32 35 35 39
10 6 6 10 13 29 29 32 32 19 10 10 10 10 19 16 13 13 13 13 10 10 13 13 10 10 10 10 6 10 10 10 3 0 3 0 23 16 16 19 26 32 39
6 10 10 6 6 6 23 26 19 16 16 10 13 10 16 16 10 13 13 16 13 13 13 13 10 13 10 6 6 6 3 3 0 0 0 3 16 13 10 16 16 23 13
6 10 10 6 10 6 3 13 16 13 16 16 13 16 19 6 6 6 6 19 19 19 19 19 16 13 13 6 10 13 3 0 0 3 0 13 13 13 13 13 13 13 6
3 6 10 6 6 6 3 6 10 10 10 10 3 6 3 6 3 3 10 16 19 23 19 16 16 16 6 6 3 3 0 0 0 0 0 10 10 13 13 13 6 3 0
6 6 10 10 10 10 10 6 6 6 6 6 3 6 3 3 0 6 6 10 10 10 6 6 6 3 3 6 3 0 0 0 0 0 0 6 10 10 13 13 3 6 6
6 6 6 10 10 10 6 6 6 6 6 6 6 6 6 3 0 3 6 6 6 6 6 6 6 6 6 3 0 0 0 0 0 0 0 3 10 10 6 3 6 6 3
6 6 3 6 6 10 6 6 6 6 6 6 10 6 6 6 0 0 3 6 6 6 3 0 3 3 3 0 0 0 3 3 0 0 0 3 6 3 6 6 6 6 3
3 6 6 6 6 3 3 3 6 3 10 6 10 3 3 3 3 3 6 3 6 3 3 3 3 0 0 0 0 0 0 0 0 0 0 0 3 3 6 6 3 3 6
3 3 3 6 6 3 3 3 3 3 3 6 6 6 6 6 6 3 3 3 0 3 3 3 3 0 0 0 0 0 0 0 0 0 0 0 0 0 3 6 3 0 0
3 3 3 3 3 3 3 3 3 3 6 6 6 6 6 6 6 6 3 3 0 0 3 3 0 0 0 0 0 0 0 0 0 0 0 0 0 0 0 3 3 0 0
0 3 3 3 3 3 6 3 3 3 6 6 6 6 6 6 6 6 3 3 0 3 3 3 3 0 3 0 0 0 0 0 0 0 0 0 0 0 0 0 0 3 0
3 6 6 6 10 6 6 3 6 6 3 6 3 3 6 6 6 6 6 3 6 6 6 3 3 3 3 3 3 0 0 0 0 0 0 0 0 0 0 0 0 0 0
3 3 6 6 6 3 10 3 6 3 3 6 3 3 3 3 3 6 6 6 6 6 6 3 3 3 3 3 3 3 3 0 0 0 0 0 0 0 0 0 0 0 0
3 6 6 6 3 6 3 3 3 3 3 3 3 3 3 3 3 3 3 6 6 10 10 3 3 3 3 3 0 0 0 0 0 0 0 0 0 0 0 0 0 0 0
0 0 3 0 3 3 6 6 6 6 6 3 3 3 3 3 3 3 3 3 3 10 10 3 3 3 3 3 3 0 0 0 0 0 0 0 0 0 0 0 0 0 0
0 0 0 3 3 6 6 6 6 6 6 3 3 3 3 3 3 3 3 3 3 3 6 0 3 3 3 3 3 0 0 0 0 0 0 0 0 0 0 0 0 0 0
3 0 0 0 0 6 10 10 10 10 6 6 6 6 3 3 3 3 3 3 3 3 3 0 0 0 0 0 0 0 0 0 0 0 0 0 0 0 0 0 0 0 0
3 3 3 0 6 6 6 10 6 6 6 6 6 3 3 3 6 3 3 3 3 3 3 0 3 0 0 0 0 0 0 0 0 0 0 0 0 0 0 0 0 0 0

GEFSSE_con_cape1000_288.txt.gz
Probability
6 10 39 26 26 26 35 45 42 45 42 48 48 48 45 42 45 48 48 52 48 42 48 48 45 55 45 48 52 55 58 55 55 58 55 61 58 58 52 55 58 55 68
6 16 32 39 35 42 45 35 35 42 48 48 45 42 48 48 52 48 45 39 42 39 39 42 39 48 39 45 45 39 39 45 42 52 52 52 61 58 68 52 48 45 48
6 16 26 39 42 35 42 35 39 39 32 39 45 48 45 45 42 32 29 32 23 29 35 32 39 35 29 26 35 32 35 32 42 42 39 29 35 55 58 48 52 52 45
6 10 19 35 35 39 32 39 32 35 35 29 35 35 39 35 29 35 32 26 26 32 35 35 39 35 32 32 39 35 32 32 29 32 13 13 19 52 48 55 52 45 42
6 13 23 39 32 39 39 32 32 32 35 35 26 29 32 29 29 29 32 32 32 35 35 32 32 32 29 29 29 32 32 29 23 10 3 3 10 45 48 48 42 42 39
10 10 26 45 42 39 32 35 39 35 29 26 26 29 23 19 26 29 26 29 26 32 32 26 32 35 29 29 32 32 26 26 13 0 0 3 13 32 45 48 48 39 42
0 3 16 48 45 39 32 29 39 26 26 26 26 23 23 23 26 26 23 23 26 23 19 23 19 23 23 29 29 26 23 19 3 0 0 3 10 42 45 45 39 35 39
0 6 16 39 48 42 39 29 26 19 19 26 23 23 23 23 16 16 23 13 16 16 16 13 19 16 19 19 23 26 23 6 3 0 0 0 26 35 32 29 29 35 39
0 0 3 19 23 39 32 29 23 19 16 19 16 16 16 16 10 13 13 16 16 19 19 10 16 13 13 13 13 13 13 6 3 0 0 0 26 32 29 26 26 23 35
0 0 0 3 3 6 16 26 26 23 19 23 13 13 23 16 16 13 13 10 10 13 13 10 13 13 10 10 10 13 10 6 3 0 0 6 23 19 13 13 16 19 19
0 3 0 0 0 0 6 13 16 23 23 19 13 19 10 6 6 3 10 16 16 19 16 13 10 10 13 13 10 6 6 0 0 0 0 6 6 16 13 6 10 10 16
3 0 0 0 0 0 3 3 3 6 3 3 0 0 3 0 0 0 6 16 19 19 13 19 16 10 0 0 0 0 0 0 0 0 0 6 10 6 10 10 6 13 10
0 0 0 0 0 0 0 0 0 0 0 0 0 0 0 0 0 0 0 3 6 6 3 3 0 0 0 0 0 0 0 0 0 0 0 10 13 10 13 13 10 10 13
3 0 0 0 0 0 0 0 0 0 0 0 0 0 0 0 0 0 0 0 0 0 0 0 0 0 0 0 0 0 0 0 0 0 0 6 10 3 6 10 3 3 6
3 3 3 3 0 0 0 0 0 0 0 0 0 0 0 0 0 0 0 0 0 0 0 0 0 0 0 0 0 0 0 0 0 0 0 6 6 6 3 6 3 6 6
3 3 3 3 0 0 0 0 0 0 0 0 0 0 0 0 0 0 0 0 0 0 0 0 0 0 0 0 0 0 0 0 0 0 0 0 3 6 3 0 3 6 3
0 3 3 0 0 0 0 0 0 0 0 0 0 0 0 0 0 0 0 0 0 0 0 0 0 0 0 0 0 0 0 0 0 0 0 0 0 3 3 3 0 3 0
0 0 0 0 0 0 0 0 0 0 0 0 0 0 0 0 0 0 0 0 0 0 0 0 0 0 0 0 0 0 0 0 0 0 0 0 0 0 0 3 3 3 0
0 0 0 0 0 0 0 0 0 0 0 0 0 0 0 0 0 0 0 0 0 0 0 0 0 0 0 0 0 0 0 0 0 0 0 0 0 0 0 0 0 3 0
0 0 0 0 0 0 0 0 0 0 0 0 0 0 0 0 0 0 0 0 0 0 0 0 0 0 0 0 0 0 0 0 0 0 0 0 0 0 0 0 0 0 0
0 0 0 0 3 3 3 0 0 0 0 0 0 0 0 0 0 0 0 0 0 0 0 0 0 0 0 0 0 0 0 0 0 0 0 0 0 0 0 0 0 0 0
0 0 0 0 3 3 3 3 3 3 3 3 0 0 0 0 0 0 0 0 0 0 0 0 0 0 0 0 0 0 0 0 0 0 0 0 0 0 0 0 0 0 0
0 0 0 0 3 3 3 3 3 3 3 3 3 0 0 0 0 0 0 0 0 0 0 0 0 0 0 0 0 0 0 0 0 0 0 0 0 0 0 0 0 0 0
0 0 0 0 3 3 3 3 3 3 3 3 3 3 0 0 0 0 0 0 0 0 0 0 0 0 0 0 0 0 0 0 0 0 0 0 0 0 0 0 0 0 0
0 0 0 0 0 3 3 3 3 3 3 3 0 0 0 0 0 0 0 0 0 0 0 0 0 0 0 0 0 0 0 0 0 0 0 0 0 0 0 0 0 0 0
0 0 0 0 0 0 3 3 3 3 3 3 0 0 0 0 0 0 0 0 0 0 0 0 0 0 0 0 0 0 0 0 0 0 0 0 0 0 0 0 0 0 0